GFSNE_sfc_thetae_000.txt.gz
Theta_e
287 287 287 288 288 290 292 289 285 282 284 285 286 290 291 292 295 296 298 302 301 300 299 301 302 303 300 300 300 302 304 305 307 308 308 307 308 309
288 287 286 287 288 289 289 290 288 285 282 286 287 289 291 292 294 294 296 299 300 299 298 299 299 301 300 299 299 300 300 301 303 304 306 305 303 304
285 284 283 283 283 283 284 286 287 288 284 285 287 286 286 286 288 290 294 294 297 298 297 298 297 298 298 298 297 297 298 299 299 300 300 303 303 303
282 281 281 283 281 281 281 282 283 284 285 282 283 284 284 285 286 287 290 293 296 296 297 297 297 296 296 296 295 296 295 296 296 297 298 299 299 300
280 280 280 280 279 280 280 281 282 284 283 281 281 282 283 284 284 286 286 287 290 296 294 296 296 296 296 295 295 295 295 295 294 295 296 296 297 298
281 280 279 279 278 279 280 281 282 280 280 279 279 279 279 281 283 282 281 282 284 289 291 290 291 294 295 295 295 295 295 295 295 295 294 293 293 295
279 279 279 280 282 283 282 282 280 278 278 277 277 277 277 277 278 280 279 280 281 284 285 285 284 286 288 291 293 295 295 295 295 295 295 294 292 293
277 278 278 280 280 282 283 283 283 280 280 278 276 275 275 276 277 277 276 277 277 281 281 282 283 283 285 288 292 292 292 292 293 293 294 294 294 292
278 277 278 280 280 280 281 282 281 283 283 281 278 277 276 277 277 276 276 276 276 280 281 279 282 281 283 286 291 291 291 291 291 291 291 292 292 292
278 278 277 277 278 279 279 280 280 280 280 280 278 278 278 279 279 279 278 278 279 280 281 275 279 278 281 282 288 292 291 291 291 291 291 290 290 291
278 278 278 277 279 282 279 277 277 278 281 282 283 283 284 284 283 281 279 279 277 277 279 278 276 274 274 276 280 288 290 290 291 291 291 290 290 290
276 277 278 278 279 281 279 277 275 276 276 277 277 279 280 279 281 281 279 278 277 274 278 277 277 276 273 274 276 277 277 285 289 290 291 291 290 286
274 275 276 279 279 280 280 277 277 278 278 278 276 276 276 277 278 279 279 278 276 277 280 280 277 276 275 275 275 277 276 276 277 283 289 290 291 289
274 275 276 278 279 279 279 279 279 278 276 275 275 275 275 276 278 280 281 281 280 280 282 282 279 278 275 272 274 277 276 275 274 279 278 284 287 289
275 277 277 277 277 277 278 278 277 276 275 273 275 276 278 279 280 280 281 282 283 283 284 283 283 281 279 277 274 275 275 276 273 275 275 276 278 278
275 275 275 276 275 275 276 276 276 276 275 274 275 276 278 279 279 280 280 280 280 279 282 283 283 283 282 281 281 279 277 277 275 275 283 283 283 284
270 270 271 272 271 272 272 273 274 275 274 275 275 275 277 278 279 280 279 280 277 275 277 280 281 282 283 283 280 281 278 276 274 277 277 278 277 281
269 267 265 266 269 270 269 270 272 273 273 274 274 275 275 276 277 278 278 276 276 276 276 280 280 281 282 280 284 280 279 280 274 277 279 280 280 277
266 267 265 265 265 270 269 269 269 271 273 272 272 273 273 275 275 275 273 272 272 276 276 275 279 281 279 274 277 283 281 281 279 271 275 280 281 276
266 266 266 267 268 269 269 268 268 267 267 269 270 270 271 273 272 273 273 271 273 276 276 274 273 276 273 271 272 270 280 279 280 278 278 277 279 282
265 266 266 267 268 268 265 265 264 265 265 265 268 269 269 271 272 273 272 269 268 273 272 272 273 275 276 276 271 269 268 280 276 269 270 269 270 273
261 264 265 266 265 266 264 263 264 262 264 265 265 266 267 270 270 271 270 267 269 267 270 272 276 277 274 274 270 266 269 267 274 280 280 277 271 270
260 262 260 260 262 264 267 264 263 262 263 264 264 265 265 267 270 270 269 268 269 268 269 272 273 274 275 274 270 272 267 265 274 271 269 278 280 280

GFSNE_sfc_thetae_003.txt.gz
Theta_e
284 284 284 285 284 284 285 286 284 278 279 283 284 288 291 292 292 293 294 300 299 300 300 302 303 303 303 303 300 300 302 305 307 309 309 309 307 307
286 284 282 283 282 283 281 283 283 283 280 284 284 287 290 289 291 289 291 298 297 297 298 298 300 301 302 302 302 300 300 301 303 306 306 305 305 305
282 281 281 281 280 280 280 280 280 281 279 282 286 289 287 286 287 289 290 289 293 297 296 297 297 298 299 300 300 299 298 300 301 302 303 304 304 305
280 280 280 281 278 278 278 278 279 280 280 278 283 283 284 286 286 287 288 289 288 294 295 296 295 297 297 296 296 296 297 297 297 299 300 301 301 302
280 279 279 279 277 277 278 278 279 281 280 279 280 281 283 283 283 286 285 285 287 292 293 293 294 295 296 296 295 296 296 295 295 295 296 297 298 299
280 280 279 278 277 277 278 280 282 281 279 278 279 279 279 280 281 281 280 282 282 287 289 289 291 292 294 295 295 295 295 295 295 294 294 293 294 295
279 279 279 280 282 281 279 278 279 280 279 279 278 278 277 276 277 278 278 278 280 282 282 284 285 286 288 290 293 295 295 295 295 295 294 293 292 293
277 278 278 280 280 281 281 282 281 279 278 278 278 278 278 277 277 276 276 276 275 281 280 280 283 282 283 286 292 292 293 293 294 294 294 294 293 292
279 278 278 279 278 278 279 280 280 281 282 280 278 277 277 277 277 276 275 275 276 278 280 278 280 281 282 285 289 291 291 291 291 291 291 291 292 292
277 276 276 276 278 278 279 279 279 278 280 280 279 278 278 279 278 278 277 277 277 279 280 274 277 277 282 284 287 290 291 291 291 290 290 290 290 291
276 276 277 277 278 281 279 278 278 278 280 281 281 281 282 283 283 280 277 278 276 278 278 277 275 274 273 276 282 289 289 290 290 290 290 290 290 290
275 276 277 277 279 279 277 276 275 276 276 277 277 278 279 279 281 280 278 277 277 274 277 277 277 275 272 273 274 276 276 286 288 289 290 291 290 285
274 274 276 278 279 279 279 277 277 279 277 277 277 276 276 276 277 278 278 277 275 275 278 278 277 276 274 274 274 275 275 275 276 282 287 290 290 288
273 274 275 277 278 278 277 278 278 277 275 275 275 275 275 276 277 279 279 279 279 278 279 280 275 277 275 271 273 275 274 274 273 278 278 284 288 289
273 275 276 276 276 276 276 277 276 275 274 273 274 275 277 279 280 280 281 282 282 282 282 282 281 279 276 276 274 273 274 275 271 274 279 279 277 276
271 271 272 274 272 272 272 274 274 274 274 273 274 275 277 278 279 280 279 280 279 279 282 284 283 282 281 281 281 278 275 279 273 274 276 282 282 283
265 265 268 268 269 270 269 270 272 272 272 273 273 274 276 277 278 279 280 280 276 276 276 277 281 283 283 282 280 281 280 277 275 275 278 275 275 278
265 262 264 263 265 269 268 267 268 269 270 271 271 272 273 275 277 278 278 276 276 277 276 279 281 281 281 279 284 281 280 280 280 280 279 279 276 275
262 261 261 264 265 269 268 267 266 266 268 269 269 270 271 273 274 275 275 274 275 275 273 273 277 280 278 276 276 283 280 281 280 279 279 279 276 275
264 261 260 262 267 268 268 267 266 264 261 265 267 268 268 270 271 272 273 270 272 274 274 274 273 275 272 270 273 273 280 279 279 279 278 279 280 281
263 264 261 261 264 267 264 264 261 261 260 260 262 266 267 268 270 271 270 270 270 272 272 271 271 274 274 275 272 267 267 279 276 271 272 272 270 275
261 264 264 262 261 261 260 261 263 262 263 263 262 262 263 266 268 269 267 263 267 267 269 271 274 276 273 273 268 264 269 270 276 279 279 276 270 268
261 263 261 258 257 257 261 259 262 262 263 263 263 263 262 264 266 266 267 266 268 267 268 271 272 272 273 273 269 269 268 266 275 271 268 277 280 280

GFSNE_sfc_thetae_006.txt.gz
Theta_e
285 285 284 284 283 282 283 282 280 276 277 281 283 288 289 291 292 291 290 294 298 299 298 299 300 303 303 302 301 301 301 304 308 312 314 312 311 310
285 284 282 282 282 282 280 281 281 278 275 281 282 286 289 290 291 291 290 292 294 297 296 297 297 299 301 303 302 301 300 303 306 308 308 308 307 308
282 281 281 281 280 280 280 279 279 279 276 278 282 284 284 287 288 290 291 289 290 294 295 296 295 295 297 299 299 301 300 302 304 306 307 307 307 307
281 280 280 281 279 278 278 277 278 279 277 276 280 281 283 286 286 287 289 290 287 292 294 294 295 295 295 296 297 298 297 298 299 300 302 305 306 306
280 280 279 279 277 277 277 277 278 280 281 280 279 281 282 283 284 286 286 286 286 290 291 292 293 294 294 295 296 296 296 296 296 297 297 298 300 301
280 280 279 279 278 277 278 278 279 278 279 279 279 279 280 282 281 281 281 283 283 285 287 288 290 292 292 293 295 295 295 295 295 295 294 294 294 296
279 280 280 281 283 282 279 278 277 278 278 278 278 279 279 278 278 280 279 280 281 283 284 285 285 286 289 291 293 295 295 295 295 295 295 293 293 294
280 279 279 280 280 280 280 280 280 277 277 277 277 277 278 280 280 279 278 277 277 282 282 282 285 284 285 288 291 293 293 294 294 294 294 294 293 292
277 276 276 278 277 277 278 280 280 281 281 280 277 278 279 280 280 278 277 277 277 280 282 280 282 282 284 286 289 291 291 291 292 292 292 292 292 291
276 276 275 276 277 278 278 279 278 279 280 279 279 279 280 281 280 280 279 278 279 280 282 278 280 281 283 285 287 290 291 291 291 290 290 290 290 291
276 276 276 276 278 280 278 277 277 278 280 281 281 281 281 281 282 280 277 277 276 278 280 280 279 279 279 282 284 288 289 290 290 290 290 290 290 290
275 276 277 277 279 279 278 276 274 277 278 279 279 279 279 279 280 279 279 277 277 276 279 279 279 279 277 279 280 282 283 285 288 289 290 290 290 289
274 274 275 277 278 278 279 276 277 277 277 277 277 278 278 278 278 278 279 278 276 276 280 280 279 279 278 278 280 281 282 283 285 285 287 289 290 289
272 274 274 277 277 276 276 278 277 276 275 274 274 275 276 277 279 280 279 279 279 279 280 281 279 279 278 277 278 281 282 281 282 284 284 284 286 289
272 273 275 275 275 274 275 275 275 274 274 273 273 274 276 278 280 281 281 281 281 281 281 281 280 280 279 279 278 278 280 282 280 283 282 283 285 285
270 269 270 273 270 272 272 271 272 273 272 272 273 274 277 278 279 280 280 280 279 280 283 283 282 281 280 280 280 280 280 280 281 281 282 283 283 284
264 262 265 268 269 270 270 270 269 270 270 271 271 272 274 276 278 280 280 280 279 279 280 281 283 283 283 282 281 281 281 280 282 280 281 280 282 283
265 261 258 259 265 268 268 268 267 267 268 270 270 271 271 272 275 277 278 277 278 278 278 279 280 280 281 282 284 282 282 281 282 282 281 280 281 282
263 261 256 257 261 268 268 268 267 266 266 267 268 269 269 271 273 274 275 275 275 277 277 278 278 280 278 277 278 283 281 281 282 281 282 280 280 282
264 262 261 261 263 266 268 267 267 265 264 264 265 266 267 269 270 271 272 272 273 274 275 276 277 277 277 276 277 278 281 280 280 280 279 280 282 282
264 265 262 262 264 264 260 261 263 264 263 261 262 263 264 267 269 270 269 267 269 272 272 273 275 276 277 278 277 277 275 278 279 279 278 278 277 278
264 265 265 264 262 262 258 256 260 262 264 264 263 262 263 264 266 267 267 267 268 269 270 273 276 277 277 277 275 273 274 276 278 279 279 278 278 275
264 264 264 260 258 258 262 259 259 259 262 264 264 265 263 264 266 266 266 268 269 268 269 270 272 274 275 275 274 274 274 273 276 276 277 278 280 280

GFSNE_sfc_thetae_009.txt.gz
Theta_e
293 293 292 292 291 290 289 287 284 280 281 284 284 288 289 290 291 293 295 294 294 294 298 299 299 302 304 304 302 301 300 304 308 311 316 316 315 314
292 292 291 290 289 289 288 287 286 282 279 283 284 285 287 287 290 291 294 294 294 293 295 297 297 298 301 302 303 303 301 302 306 309 313 313 313 312
292 289 288 288 287 287 286 285 283 283 279 282 283 286 286 287 288 290 294 294 294 293 293 295 295 296 297 299 299 300 302 302 305 308 309 309 310 310
289 287 287 286 286 286 285 283 283 283 281 279 282 283 285 287 288 289 291 292 292 292 291 293 294 295 295 296 297 297 298 299 302 304 306 307 308 310
287 286 286 285 285 285 283 282 282 281 281 280 280 282 284 286 287 288 289 291 291 290 291 291 292 293 294 295 296 297 297 297 297 298 299 301 303 305
286 286 285 284 283 283 282 282 281 280 279 279 279 280 282 284 285 285 285 289 288 288 289 288 289 290 292 293 294 295 296 296 296 296 295 294 295 298
285 284 283 283 282 281 281 280 279 278 279 279 278 279 280 280 281 283 284 286 287 288 287 289 291 292 293 294 294 294 294 295 295 296 295 294 293 295
281 281 281 280 280 280 279 280 280 279 279 278 280 278 279 280 282 282 282 282 282 289 287 287 289 289 291 292 291 292 294 294 294 295 295 294 294 293
280 279 279 279 279 280 280 280 281 281 280 280 279 279 279 281 281 281 281 281 281 285 285 283 288 286 289 288 289 291 291 293 294 293 293 293 292 292
279 279 279 279 279 279 280 280 279 280 280 281 281 281 281 282 281 282 281 282 283 284 285 281 286 285 288 289 288 289 291 291 291 292 292 292 292 292
279 279 279 278 279 280 279 278 278 278 281 281 281 281 282 282 282 281 280 280 279 281 284 282 283 284 286 287 289 288 289 290 290 290 290 290 290 290
279 279 278 278 278 279 278 278 276 278 278 279 279 280 281 282 281 281 281 279 280 279 283 281 282 283 282 288 288 290 291 286 289 290 290 290 290 293
277 277 278 277 278 278 277 277 277 278 277 278 278 279 280 280 281 282 282 281 280 280 284 283 283 283 283 285 288 290 289 289 291 290 288 290 290 291
277 277 277 277 276 276 276 276 276 276 277 277 277 278 278 279 281 282 282 283 283 282 284 284 282 281 281 281 282 287 289 290 290 289 290 288 287 289
278 277 276 275 275 275 275 274 274 276 275 275 275 277 278 280 281 282 283 283 283 283 283 284 283 283 282 281 281 284 285 288 289 289 290 290 290 291
276 276 274 274 273 273 275 275 274 274 273 274 275 277 279 280 281 283 282 283 282 282 284 284 284 283 281 281 281 281 283 283 288 288 289 289 287 289
275 276 275 274 274 274 274 274 273 273 273 274 275 276 277 278 279 282 282 282 282 282 283 284 285 285 284 284 282 283 283 284 285 285 285 285 288 290
276 275 274 273 273 273 273 272 273 271 272 273 274 275 275 276 278 280 280 281 281 281 282 283 284 283 283 284 285 284 284 284 284 284 284 283 285 288
276 276 274 274 273 273 273 273 272 271 270 272 273 273 274 275 277 277 278 279 279 279 280 282 282 282 281 280 282 283 284 285 285 284 285 284 283 285
276 276 275 275 274 273 273 272 272 271 271 270 272 272 272 274 275 276 276 276 277 278 279 281 281 280 280 280 281 282 281 284 284 284 283 284 284 282
278 277 277 276 275 275 274 272 271 271 270 270 271 271 271 273 273 274 275 273 274 276 276 277 279 279 281 282 281 281 282 279 282 283 283 282 281 282
279 278 278 277 276 275 274 273 272 272 271 271 270 271 271 272 272 272 274 274 274 275 275 277 279 281 281 280 280 279 281 281 280 280 280 280 282 279
279 279 279 278 277 275 274 274 272 272 271 271 271 271 271 270 271 273 273 273 273 273 274 275 277 279 279 279 278 280 278 279 281 281 282 278 280 280

GFSNE_sfc_thetae_012.txt.gz
Theta_e
295 294 293 293 293 292 291 290 287 283 284 287 287 291 291 291 291 292 292 293 294 294 293 294 298 300 301 303 305 303 302 304 308 311 315 318 319 319
293 293 293 292 292 292 291 290 289 286 284 286 287 289 290 289 291 292 292 292 292 293 293 293 296 297 298 299 302 304 303 303 303 308 312 315 316 316
293 293 292 292 291 291 290 290 288 287 283 285 287 288 288 288 289 290 292 292 293 293 293 292 294 295 296 296 298 301 302 302 302 306 309 313 314 314
292 292 291 290 290 290 289 288 287 287 283 282 284 284 285 287 288 288 289 291 293 294 292 292 292 294 294 294 296 297 298 299 299 301 306 308 310 312
291 290 290 290 288 288 287 286 285 284 285 283 282 283 284 286 285 288 288 289 291 293 291 291 291 292 293 294 294 296 297 297 297 298 300 302 304 307
291 290 289 288 286 286 284 284 283 283 283 282 280 281 283 285 285 284 286 289 289 291 291 289 289 291 292 293 294 295 295 296 296 296 297 297 298 301
289 287 287 284 282 282 282 282 281 281 280 280 280 281 281 281 282 284 284 285 287 290 290 289 291 292 294 294 294 293 294 295 296 296 296 296 296 297
285 285 285 283 283 281 281 281 281 280 279 279 280 279 280 282 283 283 283 282 281 289 288 287 291 289 291 292 291 291 291 294 295 296 296 295 295 294
284 284 283 283 282 282 281 281 282 282 281 281 279 280 281 282 282 282 282 282 282 285 286 284 288 287 290 291 289 290 290 292 293 294 294 293 293 293
284 283 283 283 282 280 280 281 282 282 282 282 281 282 283 283 283 283 282 282 284 285 286 282 286 286 288 291 288 288 290 288 292 293 293 292 292 292
283 283 282 281 280 279 280 279 280 281 282 281 281 281 281 282 282 283 281 280 280 282 286 284 285 286 287 289 291 288 289 289 288 290 291 292 292 292
283 282 279 279 278 279 279 278 277 279 279 280 281 281 282 282 282 283 281 279 280 281 285 283 283 284 283 289 290 291 291 289 289 289 291 291 290 295
282 281 281 278 278 278 277 278 277 278 278 279 279 281 282 282 283 284 284 282 280 280 285 285 284 284 284 286 289 290 291 291 292 291 290 290 290 290
280 282 281 278 277 277 277 276 276 277 279 278 279 279 281 281 283 284 285 285 285 283 285 286 283 283 283 284 284 289 289 291 292 292 293 291 289 290
281 280 277 277 277 277 276 276 276 278 277 277 277 278 280 282 283 284 285 285 285 285 285 285 285 284 284 282 282 285 286 288 291 291 292 292 292 292
281 281 279 276 277 278 278 278 278 277 276 277 277 279 281 282 283 284 284 285 284 283 285 285 284 284 282 283 283 283 286 285 289 290 290 290 291 293
279 281 281 280 279 279 279 278 278 277 276 277 277 278 279 280 281 283 283 284 283 284 284 285 285 285 285 284 283 284 283 284 287 288 288 287 289 291
279 280 280 279 278 278 278 278 278 276 275 276 276 277 277 278 279 281 282 282 282 283 283 285 286 284 284 285 286 285 285 285 287 286 286 284 285 289
279 280 280 280 279 278 278 277 277 277 275 275 276 276 277 277 278 279 279 280 280 281 282 284 284 283 281 280 284 284 284 286 286 285 285 285 285 287
280 280 280 280 280 279 278 277 277 277 276 275 275 276 276 276 277 277 278 277 278 279 280 282 283 282 280 279 282 283 281 286 286 286 285 287 287 283
281 281 281 280 280 280 279 278 277 276 275 275 275 275 275 276 276 276 277 276 277 278 277 279 281 280 283 284 282 283 284 281 283 285 286 284 283 284
283 282 282 282 281 280 280 279 278 277 277 276 276 276 276 275 275 275 276 276 277 277 277 279 281 282 282 281 282 281 282 283 281 281 281 281 283 282
284 283 283 282 281 280 279 279 278 277 277 275 275 275 275 275 275 275 275 276 276 276 277 277 280 282 282 281 280 283 281 281 282 282 282 279 281 281

GFSNE_sfc_thetae_015.txt.gz
Theta_e
296 295 294 293 293 292 292 290 288 284 284 289 289 292 292 293 293 293 293 294 294 293 293 293 294 297 298 298 300 302 305 305 305 308 312 315 317 319
294 294 294 294 293 292 291 291 290 288 284 288 289 290 291 290 291 292 292 293 292 293 292 293 292 294 295 296 297 299 302 304 304 304 305 310 313 317
294 293 293 293 292 291 292 291 290 289 285 288 289 289 288 288 288 290 291 291 292 293 293 293 292 292 293 294 295 296 298 300 303 303 303 304 310 315
293 293 291 291 291 291 290 289 288 288 287 283 285 286 286 287 288 288 288 289 291 291 293 293 293 292 293 294 294 295 296 298 299 301 302 302 305 312
293 291 291 290 289 288 288 287 286 286 286 283 282 285 286 286 286 287 287 288 289 292 292 291 292 292 292 293 294 295 296 296 297 297 297 298 300 306
292 291 290 288 287 285 284 284 284 283 283 282 281 281 283 285 286 284 284 287 287 289 290 291 292 293 293 293 294 293 294 295 296 296 296 296 296 300
290 289 288 286 283 283 282 282 282 280 280 279 279 281 281 282 281 284 283 285 286 288 288 290 290 292 293 293 294 292 292 293 294 296 296 295 296 298
287 287 287 287 286 284 283 282 282 280 279 279 279 279 279 281 282 283 282 281 280 288 286 286 290 290 291 293 291 291 290 292 294 295 295 295 294 295
287 286 285 285 284 284 283 283 283 283 283 282 280 280 280 281 281 281 281 281 281 284 285 283 288 287 290 291 290 291 290 290 292 295 294 294 294 293
286 285 284 284 283 281 280 280 281 282 282 282 282 281 281 281 281 281 281 281 283 284 285 281 286 286 289 291 289 289 290 289 290 292 294 293 292 293
285 285 283 282 280 279 279 279 279 280 283 283 282 282 282 282 282 282 280 279 279 280 285 284 284 286 287 289 291 289 290 289 287 290 291 292 292 292
285 285 281 280 279 279 278 278 277 279 278 279 280 281 283 283 284 283 282 279 279 279 284 283 284 284 282 288 290 291 290 289 289 288 290 290 290 294
282 283 284 280 279 278 278 278 277 277 278 279 280 281 282 283 284 284 284 283 281 280 284 284 283 284 283 284 288 291 291 290 291 289 289 290 290 289
282 283 283 280 278 278 278 278 277 277 280 279 279 279 280 281 282 284 285 285 285 284 285 285 283 283 283 283 283 288 290 292 292 291 290 291 290 289
283 282 280 280 279 279 279 278 278 280 278 277 277 278 280 282 283 285 286 286 285 286 285 285 285 284 283 282 282 285 285 289 293 292 293 292 291 292
283 283 282 280 280 279 280 281 281 280 277 277 277 279 281 281 282 284 283 284 284 284 286 286 285 285 283 283 283 283 286 285 290 290 292 292 293 294
281 282 282 282 280 281 281 281 280 280 278 277 277 278 278 279 280 282 282 283 282 283 284 284 285 285 285 283 282 283 284 286 287 288 289 288 290 291
280 280 281 281 280 280 280 279 280 279 278 277 277 277 277 277 278 280 281 281 281 282 283 285 284 282 283 284 286 284 285 284 286 287 287 286 286 290
279 280 281 282 281 280 280 280 279 279 278 278 277 277 277 277 278 278 279 279 279 280 281 283 283 282 281 279 285 286 284 286 287 286 286 285 285 287
281 281 281 282 281 281 280 280 279 279 278 277 277 277 277 276 277 277 278 277 278 278 279 281 282 280 278 279 281 283 282 283 286 285 285 287 286 283
282 283 284 283 282 282 282 281 280 278 278 277 277 277 277 276 275 276 277 277 277 278 277 278 280 281 282 284 281 282 283 282 283 284 285 285 284 284
283 283 284 284 284 282 282 281 280 279 278 278 278 277 277 277 276 275 276 276 276 277 277 279 281 282 282 281 281 281 282 283 282 282 282 282 282 281
285 285 285 285 285 283 282 281 280 279 278 277 277 277 276 275 277 277 276 275 276 276 276 277 279 282 281 281 280 282 281 281 282 281 281 281 281 281

GFSNE_sfc_thetae_018.txt.gz
Theta_e
293 293 290 290 289 289 288 286 283 280 281 284 285 287 288 287 289 288 288 291 293 293 293 294 295 294 294 296 297 299 299 300 304 306 306 307 311 315
292 292 290 290 290 289 288 287 286 284 281 284 285 285 286 287 289 287 287 291 291 291 292 293 294 295 294 294 295 296 297 298 301 304 305 305 305 308
293 290 290 290 290 287 287 286 285 284 281 283 285 285 284 284 285 286 287 286 287 291 292 292 293 293 293 293 293 294 296 297 298 301 303 304 305 306
291 290 289 291 287 286 286 283 283 283 281 279 282 282 282 283 284 284 286 287 286 290 291 292 293 293 293 293 293 294 295 296 297 298 299 301 303 304
289 288 288 287 284 283 282 281 281 283 281 279 279 281 281 282 282 283 284 285 287 290 290 291 291 292 293 293 293 294 294 295 295 296 296 297 298 300
289 288 287 285 282 280 280 279 279 278 278 278 278 278 279 281 281 280 280 282 283 286 289 289 291 292 292 292 293 293 292 293 294 295 295 295 295 298
287 287 285 285 284 281 280 278 278 277 277 276 277 277 278 277 277 280 279 280 282 283 284 285 287 289 289 291 292 292 291 292 293 294 295 295 295 297
284 284 284 286 285 284 285 284 281 277 276 276 276 276 277 278 279 279 278 278 277 282 282 281 286 286 287 290 290 291 290 291 292 293 295 295 293 293
283 282 282 284 283 280 281 281 281 282 283 279 278 278 279 278 278 276 276 276 276 279 279 278 283 283 286 290 289 291 289 289 291 291 294 293 293 292
282 282 281 280 278 278 277 277 278 278 279 280 277 277 278 279 278 279 278 278 278 279 280 276 281 281 285 286 290 290 289 289 290 290 294 293 293 292
283 283 281 279 280 280 277 276 276 277 281 281 280 281 282 283 283 280 277 276 274 277 279 280 280 281 281 281 283 290 290 289 288 288 292 292 292 292
281 281 281 279 279 279 276 275 274 275 275 276 277 279 281 281 284 283 280 276 277 275 279 280 281 281 276 278 280 280 281 289 288 287 289 292 292 292
279 279 280 280 280 280 279 276 275 276 276 276 278 278 280 280 280 281 282 281 279 278 282 281 279 280 279 280 283 286 282 284 286 288 286 289 290 291
279 279 279 281 281 280 279 279 279 278 274 273 275 277 277 277 279 281 282 284 283 281 283 282 278 278 279 279 281 284 283 284 286 287 286 288 289 288
279 281 282 281 282 280 282 280 277 275 273 269 273 276 277 279 280 280 281 283 285 284 284 283 280 280 279 278 280 281 282 282 286 286 287 286 286 286
279 280 278 278 276 277 276 279 278 276 274 271 271 275 277 278 277 279 279 280 280 282 284 283 282 281 276 277 278 276 278 280 284 284 286 287 286 285
276 275 275 276 277 277 276 276 277 276 274 272 270 273 275 276 277 278 279 279 278 279 282 281 282 281 280 280 274 276 276 278 284 284 283 281 283 283
275 273 272 273 274 275 273 274 274 274 274 273 271 271 272 274 275 277 279 278 277 277 278 281 283 280 279 279 283 277 280 276 278 281 282 279 278 280
273 273 274 275 278 276 274 274 272 273 273 274 271 270 270 273 274 275 276 277 276 276 278 279 281 279 277 277 282 285 278 284 281 276 277 276 276 280
277 277 277 276 276 276 275 274 273 272 271 272 269 271 270 270 271 273 274 274 274 276 277 278 278 277 274 275 278 279 283 279 281 279 276 276 278 283
279 279 279 278 279 276 274 273 272 271 270 267 270 273 272 272 270 270 272 272 273 276 274 275 277 279 280 278 277 279 278 283 283 279 281 279 277 276
280 280 279 278 278 277 276 275 275 271 273 272 271 269 272 268 268 270 269 271 273 272 274 275 279 280 280 279 278 278 278 278 280 282 282 282 278 275
281 281 281 281 280 279 277 277 274 272 273 270 270 269 268 266 270 273 271 270 273 272 271 272 276 279 279 279 277 280 276 275 277 276 275 281 282 282

GFSNE_sfc_thetae_021.txt.gz
Theta_e
291 289 289 289 288 287 286 284 282 276 279 282 281 285 285 285 287 286 285 289 291 291 291 291 292 293 293 294 295 295 296 298 299 300 301 304 306 307
292 289 290 290 289 287 285 285 284 280 276 281 281 282 283 285 287 285 285 289 289 290 291 292 292 292 292 293 294 295 295 296 297 299 300 301 304 306
291 289 288 289 286 285 284 283 281 280 276 279 280 281 280 281 283 283 285 284 285 289 291 291 291 292 292 293 293 294 294 294 296 297 299 300 303 305
289 288 287 289 285 283 281 279 278 278 277 276 278 279 279 280 281 280 283 285 285 288 290 290 291 291 292 292 292 293 293 294 295 295 296 298 300 302
288 287 287 285 281 279 279 278 277 280 277 275 276 278 278 279 279 281 281 282 284 287 287 289 289 290 290 291 292 292 293 294 294 294 295 295 297 298
287 286 285 282 280 278 278 277 278 276 276 275 276 276 277 279 279 277 278 280 280 284 285 287 287 289 289 290 291 292 293 292 292 292 294 294 294 296
284 284 283 283 285 281 279 277 276 276 275 275 275 276 276 276 276 279 277 277 278 280 281 281 282 283 286 288 290 291 291 291 291 293 293 294 294 295
282 282 281 283 284 284 283 282 280 276 275 274 275 275 276 277 279 276 275 274 273 278 278 278 280 280 284 286 289 290 290 290 291 292 292 294 292 292
281 280 281 282 280 278 279 280 279 281 280 277 275 274 274 275 276 275 275 275 274 277 277 276 278 278 283 286 289 290 290 290 290 291 291 293 292 291
280 280 279 277 278 278 277 276 276 277 277 278 275 274 275 277 277 278 277 277 277 278 278 274 278 278 282 284 287 290 291 289 290 290 290 292 291 291
282 281 281 278 280 280 277 276 275 276 279 280 280 281 281 282 282 281 278 277 274 276 278 276 277 278 280 281 283 287 290 288 289 289 289 290 291 290
280 280 282 278 280 280 276 274 273 274 275 276 276 277 279 280 283 280 280 277 277 276 278 277 278 278 276 277 278 279 280 287 287 289 288 289 291 291
278 278 278 281 280 282 281 275 274 276 277 276 275 276 277 278 279 279 280 279 278 279 281 279 277 277 278 278 278 281 283 285 286 287 288 287 290 291
278 278 278 283 282 282 281 280 280 279 270 271 272 273 274 276 277 279 280 280 281 281 284 282 278 277 274 276 278 282 284 280 284 286 285 286 287 289
277 279 282 283 282 281 282 282 278 274 270 266 269 271 273 276 278 278 279 280 281 282 284 284 280 279 276 278 278 280 281 283 285 286 285 285 285 285
278 278 277 278 275 276 276 278 277 274 273 269 269 270 273 273 274 276 276 277 277 278 282 283 281 280 275 276 278 279 280 280 283 285 286 285 285 285
272 273 273 272 274 276 274 275 274 274 271 268 267 268 271 273 274 276 276 277 274 275 278 280 283 281 278 279 274 277 277 277 282 284 284 284 285 285
278 272 269 268 270 273 272 272 270 271 271 270 267 269 269 269 272 274 276 276 275 275 275 278 278 278 281 279 282 277 274 276 278 281 283 281 283 284
271 271 268 269 270 275 274 273 270 270 270 270 267 266 267 269 269 272 274 274 274 275 276 277 275 273 272 272 280 283 274 278 281 277 277 278 278 282
274 273 272 273 274 275 275 273 270 268 268 268 265 263 263 266 266 269 271 269 272 275 275 276 276 275 271 269 274 277 283 274 276 280 274 275 280 282
276 276 276 276 276 276 275 273 269 266 265 262 263 264 263 266 265 269 267 270 270 273 272 273 275 278 279 275 273 276 274 283 281 281 280 275 274 274
278 278 278 278 278 278 278 275 271 269 267 264 264 262 261 262 263 264 265 264 271 271 272 273 276 278 280 280 278 274 274 272 278 282 282 282 278 272
280 280 280 279 278 276 278 276 275 273 271 269 267 264 259 264 264 264 265 268 269 270 271 270 273 276 278 278 277 279 275 274 275 274 274 281 282 282

GFSNE_sfc_thetae_024.txt.gz
Theta_e
290 289 288 287 287 286 286 284 282 274 277 279 280 282 283 283 285 285 283 288 289 289 289 290 291 291 292 292 293 294 295 297 296 297 298 299 300 301
290 289 288 290 288 287 285 285 283 281 277 278 279 280 281 283 284 283 283 287 287 288 289 289 290 291 291 291 292 293 294 295 296 296 296 297 299 301
289 288 289 288 286 285 283 283 281 280 277 277 278 279 278 278 281 281 283 282 283 287 287 288 289 289 290 290 291 292 293 294 294 295 295 297 298 300
287 287 287 289 284 283 280 278 278 277 276 275 276 276 277 278 279 278 282 284 282 286 287 287 287 288 289 290 290 290 292 292 293 294 294 295 296 298
288 287 287 285 281 279 279 277 277 279 276 275 275 276 276 277 278 279 279 279 283 285 284 285 286 287 287 287 289 290 291 292 293 293 293 293 293 296
286 285 284 282 280 279 278 277 277 276 276 275 275 276 276 278 277 276 277 279 278 281 282 283 284 285 286 286 288 288 291 292 293 292 292 292 292 294
283 283 282 283 285 281 278 277 276 275 275 275 275 275 275 275 275 277 277 277 277 278 278 279 279 280 281 284 286 287 289 289 290 291 292 292 292 293
282 281 281 283 284 284 283 282 279 275 274 273 274 273 273 274 275 275 275 274 273 277 276 277 279 278 280 281 286 288 288 289 290 291 291 290 291 292
281 280 280 282 281 279 280 279 278 279 279 275 273 273 273 274 274 274 275 275 275 278 277 275 277 276 280 283 286 287 288 289 291 290 290 289 291 291
280 280 279 278 278 278 277 276 276 276 277 277 275 275 275 277 278 279 278 278 278 278 277 274 276 276 279 281 285 287 288 289 291 289 289 288 289 291
281 281 280 278 280 282 277 276 275 276 279 280 280 281 281 281 281 280 277 276 274 276 279 277 276 276 278 279 280 287 287 288 289 288 289 288 289 289
280 280 282 279 281 281 277 275 273 275 275 276 276 277 278 278 281 278 278 275 275 275 278 278 276 275 274 278 279 277 282 286 287 287 289 288 289 289
279 278 278 282 282 282 282 276 274 276 277 276 275 275 275 276 277 278 278 277 276 275 280 281 278 276 276 276 277 277 280 284 284 285 288 287 287 289
279 279 278 282 282 283 281 281 282 279 273 271 271 272 273 274 276 277 278 278 279 278 280 281 280 277 274 273 274 277 281 283 284 285 285 286 286 290
279 279 281 282 283 281 282 282 278 275 270 266 271 270 272 274 276 277 278 278 279 280 281 283 282 280 278 276 275 278 280 281 284 285 285 285 285 285
278 279 277 278 274 275 275 278 276 275 273 271 268 269 271 272 272 274 274 275 276 276 280 280 281 281 278 278 277 277 279 279 282 284 285 285 285 285
277 273 272 272 274 275 274 275 274 273 271 268 267 268 269 271 272 273 274 275 270 273 274 277 280 282 278 278 273 277 278 279 280 282 284 284 284 285
278 274 274 272 273 274 272 272 271 271 271 270 267 268 267 268 270 272 273 273 272 273 274 276 274 274 277 277 281 277 276 278 280 281 283 282 282 284
278 278 276 272 272 273 273 273 272 271 270 271 269 266 265 268 267 269 270 271 272 272 274 276 275 271 272 265 276 283 279 277 277 279 279 280 281 282
279 276 275 273 273 274 274 273 274 270 269 269 267 262 259 264 265 267 268 264 270 272 273 274 274 273 273 273 272 273 282 278 275 275 276 279 281 283
279 277 277 275 274 275 275 272 270 270 269 266 265 263 259 264 264 265 265 266 265 273 271 271 273 276 277 277 270 271 275 282 281 278 280 277 276 275
279 279 279 277 277 276 275 275 272 271 271 267 265 262 259 261 262 262 261 265 268 267 271 272 274 277 279 278 275 271 276 270 277 281 282 280 277 274
281 280 280 279 279 278 278 277 276 275 274 272 269 266 260 262 263 261 261 268 268 267 269 271 272 275 276 276 276 276 274 274 272 272 272 281 282 282

GFSNE_sfc_thetae_030.txt.gz
Theta_e
289 288 287 288 287 286 285 284 282 281 279 282 282 283 282 282 283 284 282 285 286 287 287 288 288 289 289 291 292 292 293 294 294 295 295 296 297 299
289 287 287 287 286 286 285 285 284 282 280 282 281 281 281 282 282 283 281 285 285 286 286 287 287 288 288 288 289 290 291 292 292 293 293 294 296 297
287 287 287 287 286 285 284 284 282 281 279 279 279 280 279 279 280 280 281 281 282 285 285 286 286 286 286 286 287 288 290 290 290 291 292 293 295 296
287 286 286 288 285 284 283 281 280 279 278 276 277 278 278 279 278 279 280 281 282 283 285 285 285 285 285 285 286 286 288 288 288 289 290 292 294 295
286 286 286 285 283 282 281 279 278 279 278 276 276 278 278 278 278 279 279 280 281 283 283 283 284 285 285 285 286 286 286 287 287 288 290 290 292 293
286 285 285 284 283 281 280 279 278 277 276 276 276 276 276 278 278 276 275 278 278 280 281 282 283 284 284 285 285 285 286 286 287 288 289 289 290 291
285 284 284 285 286 282 279 278 277 276 276 275 274 275 274 274 274 275 274 276 277 279 279 280 281 282 282 283 284 284 285 286 287 288 289 289 290 291
283 282 282 286 286 288 287 283 279 276 275 274 274 273 273 274 275 274 274 274 274 280 278 278 281 280 281 282 283 285 286 287 287 288 289 289 290 290
282 282 281 281 283 281 285 285 283 282 280 276 274 274 273 275 275 275 275 275 276 279 279 277 280 279 281 282 284 285 287 287 288 289 289 290 290 290
281 281 280 280 280 280 279 278 278 278 278 278 276 275 276 277 277 277 277 277 278 278 279 274 279 278 281 282 283 285 286 287 287 287 287 287 287 287
281 281 281 280 282 284 279 277 277 277 280 282 281 281 281 281 281 278 275 274 273 275 278 276 278 278 280 281 282 284 285 285 286 286 286 287 287 287
280 281 285 281 283 284 280 277 275 277 277 276 277 278 280 278 280 278 276 273 273 273 278 275 277 278 277 280 281 283 283 283 285 285 286 286 287 287
281 281 281 284 285 285 284 278 276 278 277 276 276 277 277 277 277 277 277 276 273 273 278 278 277 277 278 278 280 281 282 283 283 284 285 286 287 288
280 281 281 284 285 285 284 282 281 279 276 275 274 275 275 275 276 277 277 277 278 277 279 279 276 277 277 277 277 279 281 282 283 283 284 285 286 288
281 281 282 283 284 284 284 283 281 279 275 272 273 274 274 276 276 276 277 277 278 278 279 280 279 279 278 278 278 279 278 281 283 283 283 285 285 286
282 283 280 280 281 282 281 282 282 279 276 274 273 273 273 273 273 275 274 275 274 275 277 279 279 279 276 278 279 279 280 278 282 282 283 284 285 285
276 279 280 279 279 278 279 279 279 277 274 272 271 271 272 272 273 274 274 273 271 272 273 276 278 278 278 278 279 279 279 279 281 282 282 284 284 284
280 279 279 278 277 277 277 278 278 277 276 274 272 271 271 271 272 272 273 272 271 272 272 274 275 275 276 277 281 279 279 279 281 282 282 282 282 284
282 281 280 279 278 277 278 278 277 277 277 274 274 271 271 270 270 271 271 271 271 272 273 274 273 273 271 271 276 281 278 280 280 280 281 281 281 282
283 282 281 280 278 278 279 278 278 277 275 273 271 270 269 269 269 270 270 268 269 271 272 273 273 272 272 272 273 276 280 280 280 279 280 281 282 283
282 281 282 281 280 279 279 279 278 277 274 270 272 270 267 269 268 269 269 266 266 271 271 271 273 275 276 277 274 274 278 281 281 281 280 280 279 280
282 283 282 281 281 280 279 278 277 276 274 272 271 271 269 268 269 268 267 267 270 270 271 272 273 275 276 277 276 276 277 278 280 280 281 282 279 278
271 277 282 282 281 280 279 278 277 276 275 273 273 271 268 269 269 269 268 268 269 270 270 270 271 273 274 275 276 276 275 276 277 277 278 280 282 282

GFSNE_sfc_thetae_033.txt.gz
Theta_e
300 300 298 298 297 296 295 294 291 287 287 290 290 293 293 292 289 289 289 287 286 287 287 287 288 289 289 290 291 291 292 293 293 294 295 296 296 297
300 298 297 297 297 296 295 294 293 291 286 290 291 291 291 288 288 288 287 286 286 285 286 286 287 287 288 288 289 289 290 290 291 293 294 294 295 295
298 296 296 296 295 295 295 294 292 291 287 289 289 289 287 287 287 287 286 286 286 285 285 285 286 286 286 286 287 287 288 288 289 291 292 292 293 294
295 295 295 294 295 295 294 293 292 291 288 285 287 286 285 287 286 284 284 284 285 284 284 285 285 285 285 286 286 287 287 287 287 288 289 290 291 292
295 295 295 295 294 294 293 291 291 288 288 285 284 286 285 285 284 284 283 284 284 284 284 284 284 285 285 286 286 286 287 287 287 287 287 288 289 290
294 294 294 294 293 293 292 291 289 287 286 284 284 283 283 284 283 281 281 283 282 283 284 284 284 285 285 285 286 286 286 286 287 287 287 288 289 290
294 293 294 294 292 292 290 290 287 286 285 284 283 282 282 281 279 281 280 281 282 284 283 284 285 285 286 286 286 286 286 286 287 287 288 288 288 289
293 293 293 290 290 288 287 286 287 286 284 283 282 281 281 281 281 280 279 279 277 284 282 282 284 284 285 287 285 285 285 286 288 288 288 288 288 289
293 293 291 289 288 289 287 287 285 283 283 285 282 282 281 281 281 279 280 279 279 281 281 279 283 283 286 286 286 285 285 286 287 287 287 288 288 288
293 292 291 291 289 288 287 286 287 286 285 283 284 283 283 282 282 281 280 280 281 282 282 277 282 282 285 286 286 286 285 286 286 286 287 287 287 287
291 291 290 290 288 285 285 284 285 284 283 283 283 283 281 281 282 282 280 279 277 279 282 280 281 281 283 285 287 285 285 286 285 286 286 286 286 287
290 289 286 288 286 285 286 285 283 284 284 283 283 282 282 283 282 283 281 278 278 277 282 278 279 280 279 284 285 287 288 286 285 286 286 286 286 287
288 289 288 285 285 285 285 285 285 285 283 283 282 282 282 283 283 283 283 281 278 278 281 279 279 279 278 279 283 286 287 287 288 287 287 287 287 286
287 289 289 286 285 286 286 286 284 283 284 283 282 281 282 282 283 283 283 282 282 280 281 281 278 278 278 279 279 284 286 287 287 286 286 286 287 287
289 288 286 285 285 284 285 285 284 283 283 282 281 281 282 283 283 282 282 282 281 281 280 282 280 280 279 279 279 281 283 285 287 286 286 286 286 287
286 288 286 285 285 286 285 285 285 285 284 282 282 283 283 282 281 282 280 280 279 279 281 281 281 281 279 280 281 281 283 280 284 286 285 285 287 286
286 286 286 284 284 283 283 284 284 285 283 283 282 282 281 281 281 282 280 279 277 277 278 280 281 281 281 280 279 282 282 282 284 285 284 284 286 285
283 283 284 284 283 283 282 282 283 282 283 282 281 281 280 280 280 280 280 278 277 277 278 279 279 279 280 282 281 281 282 281 283 284 285 283 284 285
283 283 284 285 285 283 282 282 282 284 284 282 281 281 280 280 279 279 279 278 277 277 278 279 278 277 276 276 281 281 279 281 282 283 284 284 283 284
280 283 284 285 285 282 281 282 283 283 282 282 281 281 281 280 279 279 279 277 277 277 277 278 277 277 276 276 276 281 281 281 281 282 283 285 286 284
274 274 275 279 285 285 283 282 282 283 283 281 281 281 280 280 279 280 279 275 275 276 275 276 278 277 279 280 277 279 283 281 282 282 282 283 283 284
272 272 274 275 277 286 283 282 282 282 282 281 281 281 280 280 280 279 279 278 277 277 276 278 278 279 279 278 278 279 281 283 283 282 281 282 281 280
270 271 272 272 274 274 279 284 283 283 282 282 280 280 279 278 279 280 280 278 277 276 276 276 277 278 278 278 278 280 279 280 282 281 282 280 281 281

GFSNE_sfc_thetae_036.txt.gz
Theta_e
304 303 301 300 300 300 298 297 294 290 291 294 294 297 297 297 296 294 293 292 289 288 287 287 288 289 289 290 290 291 292 292 293 293 294 295 296 297
302 301 300 300 299 299 298 297 296 293 290 294 294 295 296 294 294 292 292 290 289 289 287 287 287 287 288 288 289 289 289 290 290 291 292 293 294 296
301 300 299 299 298 298 298 297 295 295 291 293 294 295 293 292 292 292 291 290 289 289 287 286 286 286 286 287 287 287 288 289 289 290 290 291 293 294
299 299 298 297 298 298 297 296 295 295 292 290 292 292 292 292 291 290 289 288 288 289 287 286 285 285 285 286 286 287 287 288 288 288 289 289 290 292
298 298 298 298 297 297 297 295 295 294 294 291 290 291 291 290 289 289 288 288 288 288 288 287 286 286 286 286 286 287 287 287 287 287 287 288 288 289
297 298 297 297 297 297 296 296 295 293 292 290 289 289 289 289 288 286 285 287 286 287 288 287 286 287 286 287 287 287 287 287 287 287 287 287 287 287
297 298 298 297 295 295 295 296 295 293 291 289 288 288 287 286 285 286 284 285 286 287 286 287 287 287 288 288 288 288 287 286 287 287 288 289 289 288
296 297 298 296 294 291 290 290 291 293 290 289 288 286 286 286 287 285 283 282 281 287 285 284 287 286 287 289 288 287 287 287 286 287 288 288 288 288
296 296 296 295 294 295 290 288 287 286 286 289 288 287 286 287 286 284 283 283 282 285 284 282 286 285 287 288 288 288 288 287 286 287 287 287 288 288
295 295 295 295 296 295 294 293 292 292 289 287 288 288 288 288 286 285 284 284 284 285 286 281 285 284 286 288 288 288 287 286 286 287 287 287 287 287
294 294 294 295 292 291 292 291 291 291 289 288 287 286 284 283 283 284 283 282 281 282 285 283 283 283 284 286 288 288 288 288 288 287 286 286 287 287
293 294 290 291 289 288 291 290 289 290 290 289 286 285 284 285 283 284 284 281 281 280 284 282 282 282 280 285 286 287 289 288 288 288 288 287 287 288
291 292 293 289 287 287 287 290 290 291 289 288 288 287 287 286 286 286 286 284 282 281 284 283 281 281 281 280 283 286 288 288 289 289 289 288 287 287
289 292 293 290 288 287 287 286 286 286 289 288 286 285 285 285 286 286 286 286 286 284 285 284 281 280 280 279 279 284 287 288 289 287 291 289 288 288
288 288 287 286 287 287 286 286 285 288 287 285 284 285 286 286 287 286 286 286 285 285 284 284 283 282 281 279 279 281 283 286 288 288 289 288 286 286
284 287 286 284 285 286 287 288 288 289 287 285 285 286 287 285 285 285 283 284 283 283 284 285 284 283 281 281 281 281 284 283 286 287 287 287 287 286
281 284 285 286 285 287 288 287 287 287 286 286 286 286 285 284 284 284 283 283 281 281 282 283 284 284 283 281 280 281 283 284 284 286 286 285 286 285
281 284 284 285 285 285 287 286 286 285 286 286 286 285 284 283 283 283 283 282 281 281 281 282 283 281 282 283 284 282 282 282 283 285 286 285 285 285
280 280 280 281 282 284 287 287 286 286 286 285 285 285 284 284 283 282 282 281 281 281 281 282 281 280 277 277 283 281 282 281 282 283 285 285 285 285
277 277 277 277 278 280 279 286 285 286 285 285 285 285 285 283 283 282 281 281 281 281 280 281 281 280 278 277 278 281 282 282 282 282 283 286 287 284
275 275 275 276 276 277 280 279 285 285 285 285 285 284 284 283 283 282 282 281 280 280 278 279 282 278 280 282 279 281 284 282 282 282 282 283 284 284
273 273 273 274 275 275 276 277 281 284 284 284 284 284 284 284 283 282 282 281 280 280 280 281 281 280 281 279 279 281 283 285 283 282 282 281 281 280
272 271 272 272 273 274 273 274 275 278 285 285 284 284 284 283 283 283 282 281 281 280 279 279 280 280 280 280 279 281 280 282 284 284 282 281 281 281

GFSNE_sfc_thetae_039.txt.gz
Theta_e
305 306 304 303 302 301 300 298 295 290 291 295 295 300 299 299 298 297 296 295 294 292 291 290 289 289 290 290 290 291 292 292 293 293 293 294 294 295
306 304 303 302 301 300 298 298 297 294 291 294 295 298 298 296 297 295 294 295 293 293 292 290 288 288 288 288 289 289 290 290 291 291 292 292 293 294
302 301 301 302 300 299 299 299 297 296 292 294 296 297 296 295 295 295 294 293 293 292 291 290 289 287 287 287 287 288 288 289 289 290 291 291 292 293
298 299 299 299 299 299 299 298 297 297 294 293 295 294 295 295 295 294 291 291 291 291 292 289 289 288 287 287 287 287 287 288 288 289 289 289 290 291
299 300 299 299 298 298 299 298 297 296 296 294 293 295 294 294 293 293 291 291 290 291 291 290 290 289 288 288 288 287 288 288 288 288 288 288 289 289
299 299 299 299 297 298 298 298 297 296 296 294 293 292 292 293 292 289 288 290 288 288 290 289 290 289 290 290 289 288 288 288 288 288 288 288 288 288
297 299 300 298 296 296 297 298 297 295 294 293 291 291 291 290 288 289 287 287 288 289 288 288 288 288 289 290 290 291 290 288 287 288 288 288 288 289
295 298 299 297 297 293 293 292 293 295 294 293 291 290 290 290 290 288 287 284 282 289 286 286 288 287 288 289 289 288 288 288 288 287 287 287 287 288
293 295 297 297 294 297 294 291 290 289 289 292 291 292 290 291 290 287 286 285 283 286 286 284 287 286 288 288 289 289 289 289 288 288 287 287 287 288
297 296 296 296 296 295 296 295 296 296 294 291 290 292 293 293 290 288 287 285 285 286 287 282 286 285 287 288 288 289 289 288 288 288 288 288 287 288
294 295 294 294 293 292 293 293 294 294 293 291 291 290 285 284 284 287 284 282 282 282 287 284 284 284 286 286 288 288 287 288 288 288 288 288 288 288
293 294 291 292 290 289 292 291 290 292 293 293 291 288 286 287 284 285 284 282 282 282 285 283 282 283 280 285 286 287 288 288 288 288 289 289 289 289
288 289 291 289 289 289 288 290 290 291 290 291 291 290 289 289 288 287 285 284 283 283 286 284 282 281 281 281 283 285 287 287 288 289 289 289 289 288
285 287 288 286 285 285 287 287 287 286 289 289 288 288 288 289 288 288 288 287 288 286 286 286 283 281 281 280 280 284 285 287 288 287 289 289 289 288
285 284 283 283 284 285 286 286 286 287 286 286 286 288 289 290 289 288 288 288 287 287 285 286 284 283 282 280 280 281 282 285 287 287 288 287 287 287
282 283 282 282 283 283 284 286 288 286 286 287 286 288 289 287 287 287 285 285 284 284 286 287 285 284 282 281 281 281 282 281 286 287 286 286 288 286
279 281 283 284 284 285 286 287 288 288 286 287 286 286 286 286 286 286 285 284 283 282 283 284 286 286 285 283 281 282 283 283 285 284 285 285 286 285
279 280 281 281 280 280 281 282 284 283 286 286 285 285 286 285 285 285 284 283 282 282 282 283 284 282 282 284 285 282 283 282 283 283 285 284 285 284
278 278 278 278 278 278 279 279 280 281 280 287 285 285 286 285 285 284 284 283 282 282 282 283 282 280 278 277 282 281 281 282 282 283 284 284 284 282
277 276 276 277 276 276 277 277 277 280 279 285 285 285 285 285 284 283 284 282 282 281 281 282 281 281 279 278 278 282 283 282 281 281 282 284 286 284
275 275 275 275 275 274 276 276 276 276 277 283 285 285 285 285 284 284 284 283 282 281 280 280 281 279 281 281 279 281 283 282 282 281 281 282 283 283
274 273 273 273 274 274 275 275 275 274 274 276 284 285 285 285 284 284 284 282 281 281 280 282 283 282 280 279 279 281 283 284 283 282 281 280 280 279
272 272 272 272 273 273 273 273 273 273 273 275 276 280 284 283 285 285 284 283 282 281 280 280 281 281 279 280 280 280 281 282 283 283 282 281 281 281

GFSNE_sfc_thetae_042.txt.gz
Theta_e
302 301 301 302 300 298 297 295 291 286 287 292 292 295 295 295 295 292 292 297 295 294 293 293 293 292 291 291 291 291 291 292 292 293 293 293 294 295
301 301 300 301 300 298 296 296 295 292 286 291 290 292 294 294 295 291 291 296 295 294 294 294 294 291 290 290 290 290 290 290 291 291 292 292 293 294
300 299 299 301 299 297 296 296 294 292 287 288 290 291 291 290 291 291 292 289 289 294 294 293 293 291 290 289 289 289 289 289 289 290 290 291 292 292
298 299 299 300 298 296 295 293 292 291 289 286 289 289 289 290 289 288 291 291 287 293 293 293 292 291 290 290 290 289 289 289 289 289 289 290 291 291
298 298 298 297 296 294 294 293 293 295 291 288 288 289 289 288 287 288 287 287 290 293 293 292 292 292 291 291 290 290 290 290 289 289 289 289 289 290
298 297 298 297 295 294 294 292 294 293 292 290 289 288 287 288 287 284 283 285 284 288 289 289 290 291 292 292 291 291 291 291 290 290 290 289 289 289
297 297 297 296 296 295 295 293 291 291 290 288 288 287 287 285 284 284 282 282 283 283 282 282 283 283 284 288 290 292 291 291 291 290 288 289 288 289
294 295 296 295 295 293 293 293 292 291 289 289 289 288 286 286 286 284 281 280 278 283 281 280 282 281 284 284 289 289 288 289 289 289 289 289 289 288
291 293 293 296 294 293 292 291 289 290 290 291 288 288 288 288 285 284 282 280 279 280 280 278 280 281 283 286 289 289 289 289 289 289 289 288 288 288
293 293 291 290 291 291 290 288 289 290 291 290 289 289 289 289 287 288 285 282 280 280 281 278 280 280 281 282 288 289 289 288 288 288 289 289 289 289
292 291 290 289 290 290 287 286 287 288 291 291 291 291 290 290 289 286 281 278 274 278 281 280 280 278 279 279 281 288 287 288 288 288 288 288 289 289
286 287 288 287 288 286 282 281 281 284 286 287 288 288 288 286 287 286 283 280 277 275 281 280 278 277 274 279 279 280 280 285 287 287 288 289 289 285
281 282 282 286 285 284 284 280 280 282 283 285 285 287 288 286 284 284 283 282 279 279 281 282 278 277 275 277 277 279 280 280 281 284 287 288 289 289
280 281 281 283 283 283 283 283 284 283 283 283 283 284 286 286 286 284 285 284 283 282 283 283 278 277 274 275 276 277 278 281 280 281 283 286 287 287
280 281 281 281 281 281 284 285 283 282 282 281 282 282 285 287 288 287 286 285 284 284 285 284 279 279 277 276 276 277 277 279 280 280 278 281 283 285
278 277 277 279 279 280 280 280 281 282 282 281 282 284 286 286 286 286 284 284 283 280 284 283 282 281 277 278 277 277 278 277 280 278 278 282 284 283
275 276 277 277 277 277 277 277 278 278 277 279 278 280 285 285 285 284 284 283 280 278 276 280 282 282 280 280 277 278 278 279 279 278 280 280 283 283
275 274 271 272 273 274 274 274 275 275 275 276 276 278 283 284 284 284 283 281 280 279 278 279 279 278 278 279 283 279 277 278 277 281 281 281 281 282
272 272 269 270 272 274 273 273 273 274 275 274 275 276 283 284 284 282 281 281 280 279 279 280 279 277 271 269 278 283 275 276 280 279 279 281 281 280
274 272 270 271 272 272 272 271 272 273 273 272 273 275 279 284 283 281 281 280 278 279 279 280 278 278 274 270 269 273 283 275 276 274 278 280 284 284
272 272 271 271 271 271 270 270 271 271 271 271 272 273 273 283 282 281 280 279 279 280 279 279 279 278 278 275 268 270 279 284 279 275 277 277 280 278
269 270 271 270 269 269 269 269 269 269 270 271 271 271 271 272 281 278 277 279 281 280 280 279 278 279 277 276 273 269 278 279 282 282 281 279 275 273
267 269 268 268 269 269 269 268 268 267 269 270 270 270 270 270 273 281 280 281 280 279 279 277 278 278 277 277 275 272 279 274 279 278 275 281 281 281

GFSNE_sfc_thetae_045.txt.gz
Theta_e
302 300 300 301 299 298 297 295 291 284 285 289 290 294 292 293 294 295 291 297 296 296 296 296 294 295 294 293 292 292 292 292 292 292 293 293 294 294
301 300 300 299 300 300 299 296 294 289 285 288 289 290 291 293 293 292 290 296 297 296 295 294 295 295 294 292 292 291 291 291 291 292 292 292 293 293
300 299 299 300 299 299 298 296 293 292 289 288 288 289 288 289 290 290 291 291 290 295 295 295 294 294 294 293 292 291 291 291 291 291 291 291 292 292
298 298 298 300 298 296 295 294 291 291 290 288 286 287 288 288 288 287 290 291 289 293 295 294 294 293 293 292 291 291 291 291 291 290 291 291 291 292
298 298 297 297 294 293 292 291 290 294 293 290 290 287 289 287 287 287 286 286 288 292 293 293 293 293 293 292 292 291 292 291 291 291 290 290 290 290
298 298 298 297 295 292 292 291 292 292 292 290 291 291 288 289 288 288 286 284 286 288 290 288 289 291 292 293 292 292 292 292 292 292 291 290 289 290
296 297 297 296 295 294 294 292 289 288 288 288 288 287 285 284 284 287 284 286 283 284 281 281 282 282 282 287 288 290 290 290 291 292 291 291 290 289
295 294 295 294 293 292 292 292 291 290 288 287 287 286 287 285 287 285 284 283 281 282 280 279 282 280 281 282 287 289 290 289 289 289 289 290 289 289
293 293 293 294 292 290 288 288 287 289 288 286 285 286 287 288 286 285 285 285 284 284 283 281 280 278 281 285 288 290 289 289 289 289 289 289 288 288
293 292 288 286 287 286 284 283 283 285 286 287 286 286 287 288 288 288 287 288 287 284 282 280 278 278 280 281 286 289 288 288 288 288 288 288 288 288
287 286 285 284 287 286 282 280 279 279 283 285 285 286 287 288 288 287 285 284 283 281 281 279 277 277 278 278 280 286 287 287 287 287 287 287 288 288
281 283 285 284 285 285 280 279 277 278 279 280 281 282 284 284 287 287 286 284 283 279 281 279 278 277 274 277 278 279 278 283 285 286 286 287 288 285
279 279 279 283 282 282 282 279 279 282 282 282 282 282 282 283 284 285 285 285 283 280 282 282 278 276 275 275 276 278 278 278 278 281 284 285 287 287
278 278 278 280 281 282 282 283 282 280 280 281 281 281 281 282 283 286 284 285 286 285 285 283 279 277 274 274 273 276 275 277 277 279 279 283 285 285
278 278 279 280 280 280 281 280 278 277 276 275 276 277 278 280 283 284 287 285 285 284 285 284 279 280 278 276 274 275 275 276 277 275 276 274 280 283
276 275 275 277 276 276 277 277 277 276 274 274 274 274 277 278 279 285 285 284 281 280 284 284 282 280 278 277 277 275 275 275 277 276 277 275 283 282
272 271 273 274 275 275 275 275 274 274 273 274 273 273 273 275 277 284 285 284 281 280 280 282 282 281 280 280 275 276 277 276 276 277 276 276 282 281
273 269 267 266 270 272 272 271 271 271 272 272 272 272 271 274 274 284 283 282 280 278 278 278 277 278 278 279 281 277 275 275 275 277 277 276 280 281
270 270 265 264 267 271 271 270 269 270 272 271 270 270 271 273 272 276 282 281 280 277 276 277 278 275 273 270 276 282 275 275 275 274 275 278 279 280
273 271 267 267 269 270 269 268 268 268 269 268 269 270 270 270 270 270 281 281 280 279 278 279 278 277 275 271 268 272 283 274 272 271 273 279 283 283
271 270 267 267 268 268 263 261 260 266 266 265 267 269 269 269 268 270 278 279 277 280 278 278 279 279 278 274 266 267 272 283 278 274 273 277 278 277
268 269 268 267 263 264 259 258 263 265 265 266 266 266 268 269 268 269 270 277 278 278 278 280 279 278 277 275 270 263 271 275 281 282 282 280 274 271
264 265 262 259 259 259 266 262 264 264 264 265 265 266 267 267 268 269 269 272 280 279 280 279 278 279 277 276 272 269 273 274 278 277 276 281 281 281

GFSNE_sfc_thetae_048.txt.gz
Theta_e
304 302 300 301 300 298 297 295 291 289 288 288 289 292 292 291 293 295 295 299 299 298 297 298 299 298 297 296 296 294 294 293 293 293 293 293 294 294
302 300 299 300 300 300 299 299 296 292 288 288 288 290 291 292 292 293 293 297 298 296 296 297 297 298 297 296 295 294 293 292 292 292 292 292 293 293
300 300 299 300 299 299 299 298 295 294 292 293 288 288 287 288 290 291 292 291 292 297 296 296 295 295 295 296 295 294 293 292 292 292 292 292 293 293
299 299 298 301 298 298 297 295 294 292 291 288 287 286 287 288 288 287 290 292 291 293 297 296 295 294 294 294 294 293 293 293 291 291 291 292 292 293
299 298 298 298 296 295 293 292 290 292 290 288 289 288 287 288 288 288 289 289 291 294 294 295 295 295 294 293 293 293 293 292 292 292 292 292 291 291
299 298 297 297 296 294 293 290 291 288 288 288 289 289 287 289 286 288 288 285 287 290 292 292 293 294 294 294 293 293 293 292 293 292 292 291 291 291
297 297 297 297 295 293 291 290 288 287 286 286 286 286 284 283 282 285 285 288 288 285 286 287 288 288 287 292 290 293 292 292 291 291 290 290 290 291
294 295 295 295 294 291 289 289 287 283 281 281 282 282 284 283 285 284 285 284 284 285 282 283 285 282 284 284 287 289 289 290 290 290 290 290 290 289
293 293 294 292 288 286 286 285 285 286 286 282 280 280 282 282 284 285 285 285 284 287 282 284 281 284 285 286 288 289 289 290 290 290 289 289 288 288
292 288 287 284 285 284 282 280 280 280 280 280 278 279 280 281 281 282 282 282 284 287 285 283 285 283 286 283 287 289 289 289 288 288 288 288 287 288
286 285 284 282 284 285 280 279 278 279 283 284 285 285 285 286 285 283 281 280 278 281 282 285 284 281 280 280 281 287 288 287 287 287 287 287 287 287
281 281 283 282 283 282 279 277 277 278 279 279 280 282 283 283 285 283 282 280 280 280 281 281 279 280 279 279 279 279 278 283 285 285 286 285 286 283
279 279 279 281 281 282 283 279 279 278 278 277 277 278 279 279 280 281 283 282 281 281 283 282 278 279 279 278 277 278 278 278 277 280 283 284 285 285
278 278 278 280 281 281 280 280 279 278 276 274 274 275 274 275 276 277 279 281 285 284 286 284 281 280 278 275 274 275 276 276 276 277 276 281 283 284
278 278 278 279 279 279 279 278 277 275 273 272 272 273 273 274 275 277 278 280 285 286 286 285 283 281 278 275 274 275 275 276 275 274 273 273 273 277
277 277 276 277 276 277 277 277 276 274 273 271 272 273 273 273 273 275 275 277 283 281 284 285 283 282 277 277 277 275 275 274 275 274 274 272 273 277
275 273 274 274 274 274 274 274 273 272 271 271 270 270 270 271 271 273 274 275 281 281 280 282 284 282 280 280 274 276 275 274 275 276 275 270 271 276
274 271 268 266 269 271 271 270 270 269 270 270 269 269 269 269 270 271 272 271 279 280 280 281 280 280 279 279 281 276 274 274 275 277 277 271 271 277
272 270 267 265 268 270 270 269 268 269 269 268 267 266 268 269 268 269 270 270 276 280 278 278 279 276 271 268 276 282 275 274 274 273 275 273 274 279
273 271 269 269 269 269 268 268 267 265 265 266 265 265 266 266 267 267 268 269 269 280 278 278 277 277 273 271 268 272 282 273 271 271 272 276 280 283
271 270 270 269 268 268 264 260 257 260 262 257 262 264 263 265 266 266 267 268 269 279 278 278 279 279 278 274 267 267 270 280 277 274 273 276 277 278
269 269 269 267 266 264 259 256 256 256 259 260 262 260 262 265 264 265 267 267 269 271 279 278 280 278 276 275 270 263 270 271 279 282 281 279 273 272
267 267 265 262 260 259 262 258 257 261 259 262 263 263 263 263 264 266 267 268 269 270 277 277 278 277 277 276 273 268 270 273 275 275 275 281 282 281

GFSNE_sfc_thetae_051.txt.gz
Theta_e
306 305 303 302 300 297 297 296 293 288 291 293 290 292 292 292 292 292 293 298 300 300 299 300 302 303 302 302 301 299 299 297 296 295 295 295 295 295
305 303 300 300 300 300 299 299 297 294 291 293 291 289 292 292 292 292 291 298 298 299 298 298 299 300 301 301 300 299 298 297 296 295 295 294 294 294
302 301 300 300 298 299 297 298 296 295 291 293 292 290 288 288 289 289 290 290 292 297 298 297 297 297 297 298 298 298 298 298 295 294 294 294 294 294
300 300 299 300 299 298 297 295 294 293 291 288 287 287 286 288 288 287 291 292 289 294 295 297 297 296 295 296 295 296 296 296 295 294 293 293 293 293
300 299 299 299 297 295 294 293 292 293 290 286 288 287 286 286 287 288 287 288 290 294 294 294 295 296 296 295 295 295 294 294 293 293 293 292 292 291
300 299 299 298 296 294 294 293 292 290 290 289 288 285 285 286 284 284 286 286 286 290 292 292 293 294 295 295 295 294 294 294 293 293 292 291 291 292
298 298 297 297 295 294 293 290 287 288 287 285 282 281 281 281 281 282 283 285 286 286 287 287 287 288 289 292 294 295 294 293 292 292 292 292 291 290
296 296 296 296 292 290 290 288 285 281 279 279 279 278 278 279 280 280 280 280 278 283 282 284 286 286 286 287 290 292 292 291 292 292 291 291 290 289
295 294 293 291 288 287 286 284 284 284 285 279 277 277 276 277 278 278 279 278 278 281 281 280 283 283 285 285 288 290 290 289 289 290 290 289 289 289
292 291 287 285 284 283 281 280 280 280 280 280 278 278 279 280 280 281 281 281 281 282 282 279 282 282 285 284 288 289 289 289 289 290 289 289 288 288
286 285 285 283 284 284 280 278 279 280 282 283 282 283 283 284 284 283 280 279 278 279 281 279 281 282 277 277 280 286 287 287 289 288 287 287 287 287
282 282 283 282 282 281 279 278 278 278 277 278 278 278 280 280 281 280 279 277 278 277 280 279 281 279 279 277 278 280 284 287 287 286 285 285 285 281
280 278 278 280 281 282 282 279 278 277 277 276 275 276 276 276 276 277 277 276 275 275 279 282 282 281 280 279 277 280 281 280 278 280 283 284 284 284
279 278 278 280 281 281 279 279 278 277 275 273 273 273 274 273 274 275 275 276 278 278 279 280 282 281 279 277 276 279 279 277 276 277 275 280 283 284
278 278 279 279 280 279 278 277 276 274 272 270 270 271 272 273 274 274 275 276 277 277 280 284 284 283 281 278 277 277 277 277 275 274 273 272 274 271
277 277 277 278 277 277 276 275 274 273 271 270 270 271 271 271 271 272 272 272 272 274 280 285 285 283 280 280 279 277 276 274 274 273 273 271 270 270
276 276 274 274 273 274 273 273 272 272 270 270 269 268 268 269 269 271 271 270 270 270 273 282 284 284 282 280 276 276 274 274 274 275 275 269 268 272
275 272 270 269 271 271 270 270 270 270 269 269 268 267 266 267 267 268 269 269 269 270 272 280 280 280 280 280 281 276 273 273 274 276 276 273 270 271
272 270 268 268 270 270 270 269 268 268 268 267 267 265 265 266 265 266 267 268 268 269 271 277 279 278 274 271 276 282 275 274 273 272 274 272 268 274
273 270 269 269 269 269 268 268 267 266 265 265 264 263 262 263 263 264 265 265 266 268 270 277 278 278 274 271 270 271 281 274 271 270 271 273 275 282
272 271 270 269 269 268 267 265 263 262 262 259 260 259 257 261 262 263 264 264 265 268 269 271 279 279 278 275 268 267 271 280 276 274 273 272 272 278
270 270 269 268 267 266 264 261 260 260 259 258 257 255 256 259 262 262 263 263 265 267 269 272 275 280 277 275 271 263 271 271 278 282 281 278 273 271
268 268 267 265 263 262 264 261 260 257 257 258 259 260 255 261 263 263 263 264 266 267 269 270 275 278 277 276 273 270 271 271 274 277 276 281 281 281

GFSNE_sfc_thetae_054.txt.gz
Theta_e
310 307 306 305 303 301 298 298 296 291 291 294 295 295 295 295 294 296 294 296 298 299 299 301 303 304 304 305 305 305 305 304 303 301 300 299 298 297
308 306 304 302 301 298 298 298 298 295 293 296 294 294 294 293 294 295 293 296 297 297 297 298 300 301 302 303 303 304 304 303 302 300 299 298 298 297
306 305 303 300 299 299 299 298 297 296 293 295 294 294 292 292 292 292 292 291 292 295 296 297 297 298 298 299 299 301 301 301 301 299 298 298 298 297
303 302 300 300 299 299 298 297 296 295 293 289 291 290 290 291 290 289 291 293 292 293 295 295 296 296 296 296 296 297 298 298 298 298 297 297 296 296
302 301 300 300 298 297 296 294 293 293 292 289 289 290 289 288 288 289 289 290 291 294 294 294 294 295 295 295 296 296 296 296 296 295 295 295 295 293
303 302 300 300 298 296 294 293 292 291 290 289 288 288 286 287 285 284 284 286 285 287 290 291 291 293 293 293 294 295 295 295 295 295 294 292 292 292
300 300 300 299 296 295 294 291 290 288 287 286 284 282 281 281 281 282 281 281 282 284 284 286 287 287 287 289 290 292 292 294 294 294 294 292 291 290
297 297 297 295 293 292 291 289 288 285 283 281 280 279 278 279 280 279 279 278 277 283 282 282 284 284 285 286 288 289 290 291 292 293 293 291 290 291
296 295 294 291 289 287 286 286 284 285 284 280 277 278 278 279 278 278 278 278 278 281 282 280 283 282 284 285 287 289 290 290 291 291 290 290 290 290
294 292 288 286 285 284 283 281 280 280 280 280 279 279 280 280 280 281 281 281 281 282 283 278 282 281 284 285 287 288 290 290 290 289 289 288 289 289
287 287 285 284 285 285 281 280 279 280 283 282 281 281 281 281 281 280 278 277 275 277 280 279 280 281 283 284 286 286 288 289 289 289 287 289 288 287
283 283 284 283 283 282 280 279 279 278 278 278 278 278 278 279 279 278 277 274 273 274 280 277 278 279 279 283 281 283 284 286 286 287 288 286 286 285
280 280 280 281 282 283 282 280 278 277 276 276 275 276 276 277 276 277 276 275 273 273 277 278 277 277 279 280 281 281 283 284 285 285 285 285 285 285
280 279 280 282 282 282 280 279 278 276 275 274 273 273 273 274 274 275 275 276 276 275 277 278 276 276 278 279 278 280 282 283 281 281 282 282 283 284
279 279 280 281 281 279 279 278 276 274 273 271 271 271 272 273 273 274 275 275 275 276 277 278 277 277 278 280 279 279 280 280 280 280 280 280 281 281
278 278 278 278 277 277 276 275 274 273 272 270 270 271 271 271 270 272 271 271 271 272 276 278 277 280 281 282 281 279 280 279 280 279 279 279 279 279
277 276 275 275 274 274 274 273 272 272 270 270 269 269 268 268 269 270 269 270 268 269 270 274 276 281 284 283 280 280 280 279 280 280 279 279 279 280
276 273 271 271 272 272 271 270 271 270 270 269 268 268 266 266 267 267 268 268 267 268 270 272 273 277 281 281 283 280 280 279 279 280 280 278 277 280
273 271 270 270 270 271 270 270 269 269 268 267 267 266 265 266 265 265 266 266 266 267 268 271 272 273 277 275 279 284 280 278 279 279 280 278 277 280
273 271 270 270 270 270 269 268 268 267 266 265 265 265 263 263 263 263 264 264 264 266 267 270 272 274 277 277 277 279 282 279 278 278 278 278 279 280
273 272 271 270 270 269 268 267 265 264 264 263 263 262 262 262 262 262 263 262 262 265 266 268 271 274 275 278 276 276 278 280 279 279 277 277 278 280
271 271 270 269 268 267 266 264 263 263 262 262 262 260 260 260 260 261 262 262 263 264 266 269 272 274 275 277 276 274 275 276 279 282 280 280 279 276
269 269 267 266 265 264 264 263 261 261 261 261 260 261 259 259 261 263 262 263 263 264 265 268 271 273 274 278 277 275 274 274 277 278 281 282 282 281

GFSNE_sfc_thetae_057.txt.gz
Theta_e
317 316 314 314 313 309 310 308 307 300 294 298 301 302 303 303 301 300 302 301 297 298 298 299 301 302 303 304 305 306 307 308 308 307 307 305 305 303
317 315 314 313 310 308 307 308 306 305 302 302 299 298 299 298 301 303 303 296 298 296 296 297 298 299 300 301 302 302 303 305 306 306 306 305 304 304
318 316 318 315 309 305 305 305 301 303 301 296 297 297 300 298 300 301 300 300 300 296 295 296 296 297 297 297 298 299 299 300 301 303 304 303 303 303
314 312 313 309 309 306 301 301 301 303 296 296 297 294 295 296 296 298 298 297 298 296 295 295 295 295 295 295 295 295 296 297 297 298 299 301 301 302
312 310 310 307 304 304 301 302 300 296 296 292 292 293 293 293 295 296 295 295 293 292 291 291 292 293 292 292 293 293 294 294 294 295 296 296 297 299
310 310 308 304 303 301 300 297 294 296 292 294 291 290 292 295 294 291 289 290 288 288 289 289 289 290 291 292 291 291 291 291 292 292 293 293 294 295
307 306 306 303 299 299 297 295 293 292 290 290 288 288 290 290 288 288 285 286 287 288 288 289 289 289 289 289 290 290 290 289 290 290 291 292 292 293
303 302 300 298 295 293 293 292 294 291 288 287 287 288 288 287 286 285 284 283 282 289 286 286 287 286 288 289 288 288 289 289 290 290 291 291 292 292
299 298 296 294 291 289 288 287 286 285 286 286 286 284 285 285 285 283 283 283 283 286 285 283 286 285 287 287 288 288 288 289 290 290 290 292 292 290
297 295 292 289 288 286 284 282 282 282 282 282 284 285 286 286 284 284 283 284 284 284 284 280 285 284 287 288 288 288 289 288 288 290 290 290 289 288
291 290 288 286 286 287 284 281 281 281 283 282 281 281 280 280 281 282 281 279 279 280 282 281 283 283 284 285 289 288 287 287 287 288 289 289 287 288
285 285 286 285 285 284 283 281 280 281 281 280 281 280 280 280 279 281 280 277 278 278 283 280 280 281 280 285 288 289 290 288 286 286 288 288 287 288
283 281 282 283 283 283 283 282 281 281 278 279 279 280 279 279 279 280 279 278 277 277 280 280 279 279 279 279 284 287 289 289 288 288 287 286 286 286
280 281 282 283 283 282 281 280 278 278 278 277 276 276 276 276 277 277 277 277 278 277 279 279 277 278 277 277 279 285 287 289 288 288 288 285 283 284
280 281 282 283 281 280 279 278 277 277 276 275 275 275 275 276 275 275 276 277 277 277 278 279 278 279 278 278 279 282 283 286 288 287 287 287 286 287
280 281 281 280 280 279 278 277 277 276 275 274 274 274 274 273 273 274 273 274 274 275 278 279 279 279 277 278 281 282 285 283 286 287 287 287 287 287
279 279 279 278 277 277 276 275 275 275 274 274 273 272 272 271 271 272 272 272 272 273 274 277 279 279 279 279 281 284 284 284 286 285 284 284 286 287
278 277 276 276 276 275 275 274 274 272 273 272 271 271 270 269 269 271 271 271 271 272 272 274 275 277 279 283 285 284 284 284 285 285 285 283 284 286
276 275 274 275 274 274 274 273 272 272 270 270 269 269 269 269 268 269 270 270 270 271 272 273 274 275 274 275 283 284 283 284 284 284 285 284 283 285
276 275 274 273 273 273 272 272 271 271 269 269 268 269 268 268 267 268 268 268 269 269 270 273 274 275 273 273 274 282 284 285 285 284 283 285 285 281
275 274 274 273 273 272 271 271 270 269 268 267 267 267 267 267 267 267 268 266 266 268 269 270 273 274 275 276 275 278 283 283 285 285 284 283 282 282
273 273 272 272 271 271 270 269 268 268 268 268 268 267 267 267 266 266 267 267 267 268 269 271 273 275 274 274 275 280 282 283 282 282 282 283 283 280
271 271 270 269 269 269 268 268 267 267 266 266 266 266 266 265 266 266 267 267 267 267 268 269 271 273 273 274 274 279 281 280 282 282 283 281 282 281

GFSNE_sfc_thetae_060.txt.gz
Theta_e
325 326 325 325 323 320 314 312 307 304 307 312 309 311 308 311 307 306 308 303 300 298 298 299 300 301 301 302 303 303 304 304 305 305 306 306 307 307
325 324 325 324 324 320 316 311 310 309 305 314 309 307 307 304 299 303 309 299 299 298 297 297 298 299 299 299 299 299 300 300 301 302 302 303 304 305
326 326 323 319 317 315 313 312 309 309 306 310 305 307 299 300 302 303 306 305 306 298 296 296 296 296 296 297 296 297 296 296 296 297 298 299 300 302
324 323 320 316 316 314 310 307 308 310 307 304 298 304 302 299 300 303 303 301 303 299 295 295 294 294 294 294 295 295 294 294 294 294 293 293 295 296
319 319 317 314 311 310 307 307 307 303 305 299 301 295 297 299 296 299 299 303 300 297 292 292 292 292 293 292 292 293 293 293 292 292 292 291 292 293
316 316 316 313 312 310 307 306 302 298 300 296 294 294 293 296 296 295 298 299 295 293 292 290 291 291 291 292 292 292 291 291 291 291 290 290 290 291
318 315 314 311 306 308 304 302 300 296 295 293 291 291 290 291 291 294 294 293 292 293 292 293 293 292 292 292 292 291 291 290 289 289 290 290 290 291
315 313 313 303 302 296 296 296 297 296 293 290 289 289 290 291 293 291 290 288 286 293 290 290 291 290 291 292 291 289 289 289 290 290 290 291 291 291
314 310 303 301 298 295 290 288 287 289 291 291 288 289 289 289 290 289 288 287 287 289 289 287 290 289 292 290 290 290 289 289 289 289 290 290 290 291
308 303 299 295 294 290 289 285 285 285 285 285 288 287 288 288 288 288 288 287 287 287 288 283 288 287 290 290 289 289 289 289 289 288 288 289 290 289
294 294 293 289 289 289 284 283 282 282 284 284 283 282 282 281 283 286 284 283 282 284 286 284 286 286 286 287 290 290 289 289 289 288 287 288 289 289
287 288 288 288 286 286 285 284 281 280 281 280 280 280 281 282 280 283 283 281 281 281 286 283 284 283 282 286 288 288 290 290 288 288 288 288 288 291
284 284 285 285 285 285 285 284 283 282 281 281 282 283 283 283 283 283 283 281 280 280 283 283 282 281 281 281 284 286 288 290 289 289 287 287 287 286
282 283 283 284 284 283 281 281 281 282 282 282 280 280 281 281 281 281 281 281 281 280 282 281 279 280 279 279 279 284 287 289 289 288 290 289 286 286
282 283 283 282 281 280 280 279 280 281 280 279 279 279 279 279 278 279 279 280 280 281 279 279 279 279 280 278 279 281 282 286 289 289 289 289 289 289
282 282 281 281 281 279 278 279 280 279 279 278 278 278 278 277 277 278 277 278 277 277 279 280 280 279 278 279 280 280 283 283 288 289 289 289 289 289
280 281 280 280 279 279 279 278 278 277 277 277 277 276 276 276 276 276 276 275 274 274 275 277 279 280 280 280 279 280 282 285 288 288 287 286 288 289
281 280 280 280 279 279 278 277 277 275 277 276 275 275 274 274 274 274 274 273 273 274 275 276 277 278 279 281 284 283 284 285 287 287 287 285 285 288
280 279 279 279 279 278 277 277 276 275 274 274 273 273 273 273 272 272 273 273 273 274 275 276 276 276 275 274 281 285 283 286 287 285 286 285 285 286
279 278 277 277 277 276 276 275 275 275 274 273 272 272 272 271 271 271 272 272 273 273 273 274 275 276 275 274 274 279 280 280 284 285 285 286 287 281
277 276 276 276 275 275 274 274 273 272 271 271 271 271 271 271 270 271 271 270 270 271 271 273 275 275 276 277 275 277 282 284 282 286 286 284 283 284
276 275 274 274 273 273 273 272 272 271 271 271 270 270 270 270 269 269 270 270 270 271 271 273 275 275 275 274 274 276 278 281 285 284 282 282 284 280
273 273 272 272 272 271 271 270 269 269 269 269 268 268 268 268 268 269 269 269 269 269 270 270 272 273 273 274 274 275 277 277 283 283 284 282 282 282

GFSNE_sfc_thetae_063.txt.gz
Theta_e
325 326 325 325 324 325 324 322 318 311 311 315 311 317 316 318 313 311 309 303 301 301 300 301 302 302 302 302 303 303 303 304 304 304 305 305 306 306
324 324 325 325 325 326 324 322 319 316 309 316 315 317 313 311 309 309 310 302 301 299 298 298 299 300 300 300 300 300 300 300 300 300 301 301 301 302
325 325 323 325 325 326 324 323 319 314 309 313 307 308 310 306 305 306 308 308 307 299 298 297 296 296 296 297 296 296 295 295 295 295 295 296 297 297
323 324 323 323 324 325 323 318 316 313 309 307 305 304 302 302 302 304 304 305 307 302 299 297 296 295 294 293 293 294 294 293 293 293 293 293 294 294
324 323 323 323 323 319 316 313 312 309 308 307 305 301 300 302 300 299 301 301 303 302 296 294 294 293 292 293 293 293 293 293 292 292 292 292 291 291
324 324 324 323 321 317 315 312 311 308 307 305 303 296 297 297 296 295 295 299 299 302 298 293 293 293 293 292 292 292 292 292 292 292 291 290 290 291
323 323 322 317 309 311 314 313 309 306 304 301 299 292 292 292 292 293 292 294 297 298 295 294 294 294 294 292 292 293 293 292 291 291 290 290 290 290
321 322 319 308 307 300 300 301 307 305 300 298 296 294 293 291 291 290 289 288 287 295 293 292 294 291 293 294 292 291 290 290 290 290 290 290 290 290
321 319 318 315 305 310 293 290 289 290 291 297 294 291 288 290 290 287 287 287 287 291 291 289 292 290 292 291 291 290 290 290 290 290 289 290 289 289
321 320 317 311 301 295 290 287 285 286 286 288 288 286 287 288 287 287 287 288 289 289 290 284 289 288 291 291 291 290 290 290 289 289 290 289 289 288
295 296 295 292 291 291 286 284 283 282 285 286 285 284 284 283 282 287 284 284 284 284 289 287 287 286 289 288 289 290 290 290 289 290 289 289 288 288
287 287 287 288 287 288 287 286 281 280 281 280 281 281 282 280 280 283 284 282 282 281 286 284 284 284 282 287 288 289 288 289 289 290 290 289 288 288
284 284 285 286 286 286 286 284 281 282 281 281 281 282 283 283 283 282 283 282 281 281 284 283 282 282 281 281 284 286 286 286 289 290 290 289 288 288
282 283 284 284 284 284 283 282 282 282 282 281 281 281 281 281 282 283 282 282 282 281 282 283 280 279 279 279 278 283 285 285 287 287 290 290 288 287
282 282 282 282 281 281 281 281 281 282 282 281 280 281 281 281 280 280 280 280 281 281 281 282 280 279 279 278 278 280 280 283 286 287 289 290 289 289
281 281 280 280 280 280 280 281 280 280 280 280 279 280 280 279 279 279 279 279 278 278 281 281 280 280 278 279 279 279 281 280 284 286 287 289 290 290
281 281 281 281 280 280 280 279 279 279 279 278 278 278 278 277 277 278 277 277 275 275 277 278 280 280 280 279 277 279 280 281 284 285 286 286 288 289
283 281 281 281 280 280 279 278 278 277 277 276 276 276 275 275 275 275 275 274 274 275 275 277 278 277 278 280 282 279 281 282 285 285 286 285 286 288
281 280 280 280 279 278 278 277 277 275 275 275 274 274 274 274 274 273 273 274 273 274 275 276 276 275 273 273 279 283 280 280 279 280 281 286 285 287
279 278 277 277 276 276 276 275 275 276 275 274 273 273 273 272 272 272 272 272 272 273 272 274 274 274 274 273 273 277 279 277 278 279 280 286 287 283
277 276 276 276 276 275 275 275 274 274 273 273 273 272 272 271 270 271 271 270 270 270 270 271 274 276 276 277 273 275 279 282 282 280 281 279 284 283
275 274 274 274 273 273 273 273 273 272 272 271 271 271 270 270 269 269 269 269 269 270 270 272 273 274 274 273 272 274 276 280 282 282 282 282 283 280
273 273 273 272 272 272 271 271 270 270 269 269 269 269 268 268 268 268 269 269 269 269 269 269 271 272 271 272 272 273 274 276 278 278 281 283 283 282

GFSNE_sfc_thetae_066.txt.gz
Theta_e
319 319 318 320 318 317 317 316 312 306 307 310 311 315 314 314 314 311 309 305 303 302 303 304 305 306 306 306 306 305 305 305 305 305 305 305 305 305
318 318 319 319 319 319 318 316 316 313 309 311 311 312 314 315 313 311 308 305 302 300 300 301 302 303 303 303 303 303 302 302 302 302 301 301 300 300
316 317 317 318 317 318 318 318 316 316 312 314 314 312 312 312 309 307 307 304 302 299 299 299 298 299 299 299 299 299 299 298 298 297 296 296 296 297
316 316 316 318 317 318 318 317 317 317 314 311 313 309 307 307 308 302 305 306 304 300 299 298 298 297 296 295 295 295 294 293 294 293 293 293 293 294
317 317 317 317 317 317 317 317 318 317 315 312 311 307 305 301 300 301 301 302 305 304 299 297 297 296 295 294 293 293 293 293 293 293 292 292 292 292
317 318 318 317 317 317 317 317 317 315 313 310 309 305 300 298 302 299 297 299 300 303 300 297 296 295 294 292 292 292 293 293 293 293 292 291 291 290
317 318 318 316 309 312 317 317 315 313 311 308 306 303 296 292 296 298 297 296 297 298 296 295 291 291 291 293 292 293 293 293 293 293 292 291 290 290
317 319 319 308 307 301 301 302 311 312 310 308 307 304 298 297 295 293 292 288 287 294 290 289 292 290 290 290 293 292 293 293 293 292 291 291 290 290
318 318 317 316 306 311 300 296 291 290 293 309 306 300 290 290 290 288 286 286 285 287 288 285 289 287 290 290 292 291 290 290 290 290 290 290 289 289
316 315 315 313 312 308 292 286 285 286 287 289 288 288 289 289 289 288 286 285 285 286 288 282 286 284 288 288 291 291 290 290 290 290 290 289 289 289
292 292 294 293 291 292 287 284 283 283 286 287 286 286 285 286 286 286 283 283 282 282 286 283 282 283 283 284 286 289 289 288 289 289 289 290 290 289
286 286 288 288 288 289 286 284 281 280 281 281 281 282 282 282 283 283 283 282 282 280 283 282 281 281 279 282 283 282 282 287 288 288 288 288 289 286
284 284 285 287 287 286 285 283 281 282 282 281 281 281 282 282 282 282 282 281 280 280 282 281 280 279 279 277 280 281 281 282 282 285 287 288 290 288
282 283 284 285 284 284 283 283 283 282 281 280 280 280 280 280 281 281 281 280 280 279 280 281 278 277 276 275 275 279 279 281 280 282 282 285 287 289
282 282 283 282 282 282 283 283 282 282 281 280 279 279 279 279 279 279 280 280 280 280 281 281 279 278 277 275 274 276 277 278 281 281 281 281 282 283
279 279 279 280 280 280 279 278 279 279 279 278 277 278 279 279 278 279 278 278 277 277 280 281 280 278 276 276 276 275 276 275 278 279 280 281 282 286
281 281 280 280 278 278 278 278 278 278 276 276 276 276 276 277 277 277 276 275 273 273 274 277 279 279 277 277 274 275 275 276 278 279 280 279 281 283
282 280 279 278 278 278 277 276 276 274 275 275 274 274 274 274 274 274 274 273 272 273 274 274 275 275 276 277 280 276 276 277 279 279 278 277 277 281
278 277 277 276 276 276 275 274 273 274 275 274 273 272 271 272 272 272 272 272 272 272 273 274 273 272 269 267 274 280 274 274 274 274 275 276 276 279
276 275 275 275 275 274 273 273 273 273 271 271 270 270 269 269 268 269 269 268 269 269 269 270 271 271 271 268 268 271 278 274 273 273 274 278 281 283
274 273 273 273 273 273 272 271 270 269 269 267 268 267 264 267 266 267 266 265 266 268 268 269 271 273 273 272 267 268 272 278 278 276 275 276 275 277
272 272 272 271 270 270 269 267 266 265 265 265 262 261 261 263 263 263 263 263 266 267 267 269 271 271 270 269 268 268 270 273 276 278 280 279 276 273
269 270 270 269 268 267 267 265 263 262 262 262 263 264 259 260 264 264 266 265 266 266 266 266 268 269 269 269 268 267 268 269 272 273 275 279 281 282

GFSNE_sfc_thetae_072.txt.gz
Theta_e
316 315 315 317 317 317 316 314 311 306 305 308 309 313 313 313 311 311 311 309 305 304 305 306 309 312 313 315 316 318 319 319 319 318 317 315 313 312
317 316 316 316 316 317 317 316 315 312 307 308 309 313 314 315 314 313 313 310 306 304 303 303 305 307 309 311 313 314 315 315 314 312 311 309 309 308
316 315 315 315 314 315 316 316 314 314 310 312 313 310 310 312 314 314 314 313 313 305 303 302 302 302 304 306 307 307 307 307 306 306 305 305 305 305
315 315 315 315 314 314 314 313 314 314 312 309 312 311 307 311 312 312 312 313 313 309 304 301 301 301 301 302 302 301 301 301 301 301 300 299 300 300
316 315 314 314 313 313 313 313 314 314 313 311 310 313 313 305 309 307 311 309 310 308 302 300 299 300 300 300 299 298 298 297 295 294 293 294 293 293
316 315 314 313 312 312 312 312 313 312 313 312 312 312 313 312 311 312 310 308 309 310 303 300 299 299 298 297 296 296 294 293 292 291 291 290 289 291
315 315 315 313 307 309 312 312 312 311 311 311 311 312 312 306 303 311 308 311 307 305 300 298 297 297 297 296 295 293 292 292 291 291 291 290 290 291
315 315 316 307 306 301 300 301 309 312 311 311 312 310 311 312 312 309 310 294 295 294 293 290 293 292 293 292 292 292 291 291 291 292 291 291 291 291
317 316 316 316 306 313 302 296 297 292 294 309 312 312 312 313 313 300 295 291 289 289 289 286 289 288 292 292 291 291 291 291 292 292 292 292 292 291
317 316 315 315 314 312 311 308 291 287 288 290 295 295 291 292 295 294 290 285 285 286 288 283 286 285 290 290 291 291 292 291 291 292 292 291 290 290
312 298 298 303 303 300 307 292 285 284 287 287 287 287 287 287 289 289 286 286 283 283 286 284 284 284 285 285 287 290 290 289 289 289 289 289 289 289
287 287 288 288 289 290 291 286 282 281 281 282 282 282 283 283 283 283 285 283 281 279 280 282 280 281 280 282 283 282 282 284 284 285 285 286 287 285
285 284 285 286 286 286 285 284 282 282 281 281 281 280 280 280 280 280 280 281 280 277 280 281 279 279 279 278 279 281 280 280 280 280 282 283 283 283
283 283 284 285 285 284 283 283 283 282 281 279 278 278 278 278 279 280 280 280 281 280 281 280 278 278 277 275 275 279 279 279 279 278 279 281 282 283
281 281 282 282 281 280 281 281 280 279 278 277 276 276 278 279 280 280 280 280 280 279 280 280 279 278 278 275 275 275 276 277 278 277 276 276 277 277
280 279 279 279 277 277 277 278 277 277 277 276 275 276 277 276 276 277 275 276 275 275 278 278 278 277 275 275 275 274 275 273 276 276 277 277 277 276
279 278 277 276 275 274 275 275 275 275 274 274 274 274 273 274 274 274 274 273 271 272 272 275 275 275 276 275 272 274 275 275 276 275 275 273 273 274
277 275 274 274 273 273 273 273 273 273 273 273 272 272 271 271 271 271 271 270 269 269 269 270 270 270 271 273 275 271 271 271 272 273 274 271 271 274
273 273 272 272 272 272 272 271 270 272 272 270 269 269 269 269 268 268 267 267 267 267 268 269 269 268 264 261 269 273 269 270 270 270 272 272 271 273
271 270 270 270 270 270 269 269 268 268 268 267 266 265 264 265 265 265 266 262 264 266 266 268 267 267 264 259 263 267 274 270 269 268 269 271 272 275
269 268 268 267 267 266 265 265 264 264 263 262 261 261 258 263 262 262 261 260 261 265 264 264 267 269 269 268 259 261 267 272 272 269 269 268 267 269
266 266 265 264 264 264 262 260 261 260 261 261 256 255 254 257 258 258 258 258 262 263 264 266 267 267 266 265 263 261 265 267 270 272 273 273 269 266
264 263 262 261 262 261 261 259 258 258 257 256 256 257 250 255 258 258 257 260 262 262 263 262 264 265 264 264 263 263 264 264 267 267 268 273 274 275

GFSNE_sfc_thetae_075.txt.gz
Theta_e
316 315 314 315 315 315 314 313 310 304 305 307 307 311 311 312 310 311 310 309 305 305 305 307 310 312 313 314 315 317 319 320 321 321 321 322 322 321
317 316 316 316 316 317 316 315 314 311 308 312 312 312 313 312 311 310 311 308 305 303 302 303 304 307 309 310 311 312 314 315 317 318 319 320 320 320
316 315 315 316 315 315 315 315 313 313 309 312 314 315 310 312 313 313 313 312 312 305 303 303 302 302 303 304 305 307 308 310 312 314 316 315 313 312
316 315 315 315 314 314 314 313 313 314 312 309 312 313 307 311 312 312 313 314 314 311 305 303 302 302 301 301 302 302 303 305 307 309 308 308 309 308
316 315 315 315 313 313 313 312 313 313 312 311 311 313 313 309 307 309 311 312 313 311 305 303 303 303 301 300 301 301 301 302 300 300 300 300 301 301
316 316 316 315 314 314 313 313 313 312 312 311 311 311 311 313 307 310 310 310 309 312 308 305 303 301 300 299 298 299 300 298 297 295 294 293 292 293
314 314 315 313 307 309 313 312 311 310 310 310 309 310 310 310 309 312 311 311 313 310 310 305 302 299 299 298 299 298 296 295 294 293 292 291 290 290
313 314 314 306 305 300 299 301 308 310 309 309 309 308 309 311 312 312 309 309 307 298 298 293 295 294 296 296 295 293 293 292 293 292 292 291 290 290
314 314 315 316 307 313 302 297 298 297 301 312 310 310 310 312 313 311 310 308 308 293 290 286 289 289 292 293 292 292 292 291 291 291 291 291 291 291
315 315 315 315 315 314 313 311 307 303 295 296 302 300 294 291 294 297 297 286 286 286 288 285 286 285 290 291 292 292 291 291 291 291 291 291 291 291
314 300 293 300 297 295 309 308 293 284 286 287 287 286 286 286 287 289 286 287 284 281 282 284 284 284 284 285 287 289 289 289 288 288 288 288 288 289
288 287 287 287 288 289 291 296 285 281 281 282 281 282 282 282 283 282 284 283 282 280 280 281 281 282 280 282 282 282 282 283 284 284 284 284 285 283
284 283 284 285 286 286 285 284 282 282 281 280 280 280 280 280 280 280 280 280 278 276 280 281 279 280 279 279 280 280 280 280 280 280 281 282 282 282
281 281 282 283 284 283 282 282 282 280 279 278 277 277 277 278 278 279 280 279 280 278 279 280 278 278 277 276 276 279 279 279 279 279 279 280 280 281
281 280 280 280 280 280 280 280 279 278 277 276 275 275 275 276 277 277 278 279 278 278 279 278 278 277 277 276 275 276 276 278 279 277 277 277 276 276
279 278 277 277 276 276 276 276 276 275 275 274 273 274 275 275 274 275 274 275 274 274 276 276 275 276 274 275 275 274 276 274 276 276 276 276 274 273
277 276 275 274 274 273 273 273 274 273 272 273 272 272 272 272 271 272 272 272 270 270 270 272 274 274 274 274 272 271 271 271 272 273 273 271 271 271
274 272 272 271 271 271 271 271 271 271 271 271 270 270 269 269 269 269 270 269 268 268 268 270 270 269 270 270 273 269 269 269 270 271 272 269 270 272
271 270 269 270 270 270 270 269 268 269 269 268 267 267 268 268 267 267 267 267 266 267 268 269 267 266 261 259 267 272 268 269 269 268 269 269 267 270
269 268 267 267 268 267 267 267 266 265 265 265 264 263 264 264 264 264 265 263 264 266 266 266 266 266 263 258 259 266 271 268 267 266 267 269 270 273
266 265 265 265 265 265 263 263 263 262 261 260 259 260 258 262 261 262 262 261 262 264 263 263 265 268 267 266 257 258 265 271 270 268 267 266 266 267
263 263 263 263 262 262 259 259 260 259 259 259 256 255 254 258 258 259 258 258 262 262 263 264 266 266 265 263 262 260 263 265 269 271 272 271 267 264
260 261 260 258 258 258 259 256 256 256 256 255 255 255 249 254 258 257 256 258 260 260 261 261 263 264 263 263 262 262 262 262 264 265 266 271 272 273

GFSNE_sfc_thetae_078.txt.gz
Theta_e
316 315 315 314 314 314 313 312 309 303 304 308 309 311 311 312 311 312 312 310 306 306 306 308 310 312 313 314 315 317 319 320 321 322 322 323 323 324
317 315 315 315 314 315 314 314 313 310 305 310 310 312 312 312 312 311 312 308 305 303 303 304 305 307 309 310 311 312 314 315 316 317 318 319 321 322
316 316 315 316 314 315 315 315 314 314 309 312 314 314 312 314 315 314 313 312 312 304 302 302 302 303 303 304 306 307 309 310 311 313 314 316 318 319
315 315 315 315 314 315 315 314 314 315 312 309 312 313 312 315 314 314 314 314 314 310 304 303 302 301 301 301 301 302 303 305 306 307 309 311 313 315
315 315 315 315 314 314 314 314 314 313 313 310 310 314 314 314 311 311 312 314 314 310 305 303 302 303 302 301 301 301 301 301 301 301 302 303 305 309
316 316 316 315 315 315 314 313 313 312 312 311 310 311 312 314 312 310 310 310 310 312 309 307 307 305 302 302 301 300 300 300 300 300 299 297 297 299
315 316 316 314 308 311 315 314 314 312 311 310 310 310 310 310 310 312 310 312 313 314 312 312 311 310 310 301 303 300 299 299 298 298 296 294 293 294
313 314 315 306 306 300 300 302 310 313 311 310 310 309 309 311 312 311 310 308 306 314 312 311 303 308 304 302 299 297 297 296 296 295 294 292 291 291
313 314 314 314 306 313 303 297 298 297 300 312 310 310 310 311 310 310 309 309 309 300 296 295 290 290 292 294 294 293 293 293 293 292 292 291 290 290
314 312 302 304 307 298 309 311 309 302 292 298 302 295 286 287 291 295 293 287 287 285 286 286 286 284 288 290 291 291 291 290 290 290 290 290 289 290
288 287 287 287 287 290 292 292 288 283 285 286 285 284 284 284 285 289 286 289 288 282 281 284 283 283 283 283 285 287 287 287 287 286 286 286 286 286
284 284 285 285 286 287 287 287 281 280 281 281 280 281 281 281 282 281 282 282 282 279 280 281 281 282 279 282 281 283 282 283 284 284 284 284 284 283
281 282 282 284 284 284 284 282 281 281 280 279 279 279 278 278 279 279 279 278 277 275 278 281 279 280 279 279 280 280 280 280 280 281 282 282 282 282
278 279 280 282 282 281 280 281 280 279 278 276 275 275 275 276 276 278 278 278 278 276 277 279 278 278 277 277 276 279 279 280 280 279 280 280 280 280
279 279 279 279 279 278 279 278 277 276 275 274 273 273 274 275 276 276 278 278 276 276 276 276 276 277 277 275 275 276 276 278 278 277 277 277 277 278
276 275 276 276 274 274 274 274 274 274 273 273 273 273 274 273 272 274 273 274 273 272 274 275 275 275 274 274 275 273 273 273 273 274 274 275 275 276
273 273 272 272 271 271 271 271 271 272 271 271 271 271 271 271 270 271 271 271 269 269 269 271 273 274 274 274 271 271 270 270 271 272 272 271 273 274
271 269 268 269 269 269 269 268 269 268 269 269 269 269 268 268 268 269 269 269 268 268 268 269 269 269 269 270 272 269 269 269 270 271 270 269 269 272
267 266 266 266 267 268 268 267 266 267 267 266 265 265 266 267 267 267 266 267 267 267 267 268 267 266 263 261 267 271 267 268 268 268 269 269 268 270
265 264 264 264 265 264 264 264 263 262 262 263 262 262 262 264 264 264 264 264 265 265 265 266 265 265 263 262 263 266 270 268 267 267 267 269 270 272
264 263 262 263 263 262 259 259 258 259 258 258 258 259 257 261 261 262 262 261 263 263 263 263 265 267 267 267 262 263 266 270 270 268 268 267 267 268
261 261 261 260 259 259 256 255 257 257 257 257 255 254 254 258 258 258 259 260 261 262 262 264 265 265 265 263 262 262 264 266 268 270 270 270 267 264
256 259 257 256 257 256 258 255 254 254 254 254 254 255 251 255 257 258 258 259 260 261 261 262 263 264 263 263 262 262 262 263 265 265 267 270 271 272

GFSNE_sfc_thetae_081.txt.gz
Theta_e
317 319 318 315 315 316 317 316 312 309 310 314 315 318 318 320 317 321 321 313 308 306 306 308 310 312 313 314 315 317 319 320 322 322 323 324 325 325
317 316 316 317 315 315 315 315 314 312 308 315 315 320 319 315 316 316 315 311 306 304 304 305 306 308 309 310 311 312 314 315 317 318 319 320 322 323
318 317 316 318 317 316 316 316 314 313 309 314 317 319 316 315 318 319 317 315 315 305 303 303 303 303 304 305 306 307 309 310 311 313 315 317 319 320
317 317 316 316 315 316 315 314 314 315 315 312 316 316 316 318 318 319 320 317 317 311 305 303 302 302 301 301 301 302 303 304 306 307 309 311 313 315
317 316 317 318 318 316 315 314 314 314 314 312 313 315 315 317 317 317 321 323 321 312 305 303 303 302 302 301 301 301 301 301 301 301 302 303 306 308
319 318 317 316 316 317 315 316 318 318 318 313 312 313 314 319 318 316 316 318 316 318 314 309 308 306 303 302 302 301 301 301 301 300 300 299 299 301
319 319 319 317 309 314 320 320 318 315 314 313 311 312 313 315 312 314 312 313 316 321 320 320 321 320 319 307 306 302 300 300 300 300 300 298 297 297
316 317 317 307 307 301 300 302 309 315 312 312 311 310 311 312 313 313 312 310 308 317 315 315 319 316 304 297 295 296 296 297 297 298 297 295 293 293
315 313 313 312 301 310 302 297 297 296 292 302 307 310 308 299 296 307 310 310 310 298 294 299 291 289 292 292 293 292 292 292 292 292 292 291 290 290
290 290 291 290 290 291 296 295 286 285 286 287 285 284 284 285 286 291 291 289 288 284 285 287 286 284 285 286 288 289 289 288 288 288 288 287 287 287
286 286 286 286 287 289 294 287 284 283 285 285 284 284 283 283 283 288 285 286 287 283 281 284 283 282 282 282 284 286 286 287 287 286 286 286 286 286
282 283 284 284 285 285 286 285 280 280 280 280 280 279 280 281 281 280 281 280 280 279 279 281 282 283 281 283 283 284 284 284 284 284 285 284 285 286
281 281 282 283 283 283 283 281 280 280 278 279 278 279 279 280 281 281 281 279 278 277 279 283 281 282 282 281 282 282 282 282 283 283 283 282 282 282
280 281 281 281 281 281 281 280 280 281 281 280 278 278 278 279 280 280 279 279 278 277 278 280 280 280 282 281 280 281 282 282 282 281 281 281 281 280
280 279 278 278 278 278 278 278 279 280 280 278 277 276 277 277 279 280 280 279 278 278 278 278 278 279 279 278 278 278 279 279 279 278 278 278 278 279
279 278 277 277 276 276 277 277 277 277 277 276 276 277 277 276 275 276 276 277 276 275 276 276 276 277 276 276 276 275 275 274 275 275 275 277 278 278
278 278 277 277 276 275 275 274 274 275 274 274 274 274 274 274 273 274 274 274 273 272 272 273 275 276 276 275 274 273 272 273 274 274 273 273 274 275
275 274 273 273 273 273 272 272 272 271 271 272 272 272 272 272 272 272 273 272 272 271 271 271 272 272 273 273 273 272 272 272 272 273 273 272 272 275
272 271 271 271 271 271 270 270 269 269 269 269 269 269 270 270 270 270 270 270 270 270 270 271 270 269 268 267 271 271 270 271 271 272 272 272 272 273
270 269 269 269 269 268 268 268 268 268 267 267 267 267 268 268 268 268 268 268 269 269 269 269 269 268 267 267 267 270 271 270 270 270 271 272 274 274
268 267 268 268 267 267 266 266 265 265 264 265 265 265 265 267 266 266 267 264 266 267 267 267 268 268 270 271 268 269 271 271 271 270 270 270 270 271
267 266 266 266 266 266 266 266 265 264 264 264 263 263 264 265 265 265 265 265 266 266 267 268 269 269 268 267 266 267 269 270 271 271 271 271 269 267
265 266 265 265 266 265 265 264 263 263 262 262 262 263 262 263 264 265 265 265 265 265 265 266 267 268 267 266 266 267 267 268 269 269 271 272 272 272

GFSNE_sfc_thetae_084.txt.gz
Theta_e
325 325 324 323 323 322 320 318 315 310 311 318 317 323 326 327 323 326 325 315 307 306 306 308 310 312 312 313 315 316 318 319 321 322 323 324 325 326
319 319 322 322 323 323 321 319 317 312 308 315 319 320 323 319 318 321 323 314 307 304 304 304 305 308 309 310 311 312 313 315 316 317 319 320 322 323
319 318 317 319 320 319 319 316 314 314 310 313 316 318 322 319 319 321 318 319 319 305 304 304 303 303 304 305 306 307 309 310 312 313 315 316 318 320
315 317 316 317 317 318 317 316 315 316 313 311 314 315 315 318 319 318 317 317 321 313 305 303 303 302 301 301 302 302 303 305 306 307 309 311 313 315
316 313 314 316 315 317 316 316 317 316 315 313 312 316 317 317 318 322 323 324 325 315 307 304 303 303 303 302 301 301 301 301 301 302 303 304 305 308
318 318 316 317 317 317 316 317 317 317 316 314 316 318 319 321 321 318 320 324 323 323 316 310 308 306 303 303 302 302 301 301 301 300 299 298 298 300
321 322 322 318 310 314 318 319 320 318 315 315 316 317 319 319 317 318 316 318 319 319 319 320 321 323 310 298 297 297 297 299 300 300 300 298 297 297
318 320 320 309 308 299 299 300 306 314 314 313 313 311 312 313 314 313 313 311 309 295 299 310 296 290 290 291 291 292 293 293 293 294 295 295 294 294
294 295 298 296 293 296 295 289 288 287 288 295 299 295 289 288 288 292 296 292 291 288 292 289 289 285 287 288 289 290 290 290 290 290 290 290 289 289
287 288 288 288 288 289 295 288 285 285 285 285 283 282 283 284 285 288 290 290 288 285 284 290 287 284 285 285 287 287 287 287 287 287 287 287 287 287
284 285 285 285 286 290 292 284 283 282 283 284 283 283 283 284 284 288 284 286 287 282 281 283 284 283 283 284 285 286 285 286 286 286 286 287 286 286
284 284 284 284 285 285 284 282 279 279 280 280 281 282 283 283 283 283 284 284 284 284 283 284 286 286 285 287 286 287 287 285 284 284 284 284 284 288
283 283 283 283 283 284 284 284 281 283 282 283 284 284 284 284 284 283 283 283 284 282 282 284 284 285 286 285 286 286 286 285 286 285 284 282 282 282
282 282 282 281 281 282 282 282 283 284 285 283 283 281 281 281 281 282 281 281 281 280 282 282 282 282 283 284 283 285 285 283 283 282 282 282 281 280
281 280 280 280 281 281 280 280 281 283 282 281 280 280 280 280 282 282 283 283 282 280 279 280 281 282 282 281 281 281 280 283 282 280 280 280 281 281
281 282 281 281 280 280 281 280 281 280 280 280 280 280 281 280 279 280 280 280 280 280 279 279 279 280 279 280 279 278 279 277 279 279 279 279 280 281
282 283 282 281 280 280 279 278 278 278 277 278 278 278 278 278 277 278 278 278 278 276 277 277 278 279 278 277 277 277 276 276 278 277 276 276 279 280
281 279 278 278 277 277 276 276 276 274 275 276 276 276 276 275 276 276 277 276 275 275 275 275 276 276 277 276 275 275 275 275 276 276 276 276 276 279
278 277 276 276 275 275 275 274 273 273 273 274 274 273 274 274 274 274 274 274 274 274 274 274 274 273 272 272 276 273 273 273 274 275 276 275 275 276
275 274 274 274 273 273 272 272 272 272 272 272 271 271 272 273 272 272 272 271 271 272 273 274 273 271 270 270 270 274 274 273 273 272 273 275 276 276
273 272 273 272 272 272 272 271 270 270 269 270 270 270 270 271 270 270 271 269 269 271 270 271 272 270 273 274 272 273 275 275 273 272 272 272 272 273
272 271 271 271 271 271 271 270 270 270 269 269 269 269 269 270 269 269 269 269 270 270 270 271 272 272 271 270 269 270 272 274 274 275 274 273 272 269
270 271 271 270 270 270 270 269 268 269 267 267 268 267 267 268 268 269 269 269 269 268 269 269 271 271 270 270 269 270 270 271 273 273 274 275 275 274

GFSNE_sfc_thetae_087.txt.gz
Theta_e
325 323 323 324 325 324 323 321 316 311 311 317 317 327 327 328 324 328 328 317 307 306 306 308 310 312 312 313 315 316 318 319 320 321 322 323 324 325
321 322 323 323 322 322 323 323 321 316 310 314 318 321 325 322 322 324 327 314 308 305 304 304 306 308 309 310 311 312 313 314 316 317 318 319 321 322
319 320 319 321 321 323 323 323 321 319 314 316 316 317 317 317 319 319 318 320 320 307 304 303 304 304 305 306 306 308 309 310 311 313 314 316 318 320
317 317 317 317 317 319 319 318 318 319 315 310 314 315 315 317 317 317 318 319 319 313 306 305 304 303 303 302 302 303 303 304 305 307 309 311 313 315
314 315 316 316 317 317 318 316 317 316 315 313 312 316 319 319 317 318 319 320 321 315 306 303 303 303 303 302 301 301 301 301 301 301 302 303 305 307
314 316 316 314 315 315 316 314 314 313 313 313 313 314 316 321 320 319 319 322 321 323 316 310 308 303 297 296 296 296 297 298 299 299 298 297 297 299
316 317 317 314 307 309 315 315 316 315 314 313 313 314 314 315 315 317 316 317 321 304 305 305 298 295 292 293 293 294 294 294 295 295 296 295 295 296
310 308 305 297 296 291 290 290 290 299 304 308 311 311 309 293 292 295 297 298 300 292 295 297 292 288 289 288 290 291 291 291 291 292 292 292 291 291
292 292 294 293 292 295 289 287 286 286 285 290 292 284 285 284 286 290 293 293 294 286 289 292 290 285 286 287 288 288 288 289 289 288 288 288 288 288
287 287 287 287 288 291 287 284 283 284 284 284 283 282 283 284 285 287 289 288 288 284 283 286 286 283 285 285 287 287 287 287 287 288 288 288 287 287
284 285 285 285 287 290 285 282 281 281 284 285 285 284 284 284 285 286 285 287 286 283 283 283 286 285 285 285 286 286 286 285 285 285 286 286 286 288
283 283 284 285 286 286 284 283 280 281 283 285 285 285 285 285 283 284 284 284 285 285 283 281 285 286 285 288 287 287 287 285 284 285 284 284 283 286
283 282 283 283 284 284 285 284 283 285 285 285 284 285 284 284 283 284 284 282 281 281 282 282 284 284 285 285 286 287 286 285 285 285 285 284 283 282
282 282 283 282 282 282 283 283 284 285 286 284 283 282 282 281 283 284 283 283 282 280 282 283 282 282 281 282 284 286 286 286 285 283 284 283 283 283
282 281 282 282 282 282 281 281 282 284 283 282 281 281 282 282 284 284 286 285 285 282 281 281 280 281 281 281 281 281 281 282 284 281 281 281 281 282
283 283 282 282 282 282 281 282 281 281 281 280 280 281 282 281 280 281 280 281 281 280 282 281 280 279 278 278 278 279 279 277 279 280 280 280 281 282
284 284 282 282 281 281 280 279 279 279 278 279 279 279 279 278 278 279 279 279 278 277 278 279 279 280 280 277 276 277 277 277 278 278 277 277 280 282
282 280 279 279 278 278 277 277 276 275 276 277 277 276 276 277 276 277 277 277 276 276 276 276 276 276 277 277 276 275 275 275 275 276 276 276 276 279
279 278 277 277 276 276 276 275 274 274 275 275 274 274 274 275 275 275 275 274 273 274 275 276 275 273 270 270 275 276 274 274 274 274 275 275 274 276
277 276 275 275 275 274 274 273 273 273 273 273 273 272 272 274 273 273 273 271 271 273 273 274 274 272 269 268 270 274 277 274 274 273 273 275 276 277
274 274 274 274 274 274 273 273 273 271 271 272 272 271 271 272 271 271 271 270 270 272 271 271 272 273 274 274 272 272 275 276 276 274 274 272 272 272
274 273 273 273 273 272 273 272 272 272 270 270 270 270 270 270 270 270 270 270 270 270 270 272 273 273 272 271 270 271 272 275 276 277 277 276 273 269
272 273 272 272 272 272 272 271 270 270 269 269 269 268 268 268 269 270 270 270 269 269 270 269 270 272 271 271 271 271 271 272 273 273 274 276 276 276

GFSNE_sfc_thetae_090.txt.gz
Theta_e
321 321 320 319 320 319 318 317 311 305 308 315 314 322 322 324 321 322 321 311 306 305 305 307 310 312 313 314 315 316 318 319 320 321 321 322 324 325
321 320 318 319 319 318 318 318 316 312 307 311 312 315 320 320 320 321 321 315 308 305 305 305 306 309 310 310 311 312 313 314 316 317 318 319 321 321
317 317 317 318 317 318 318 317 316 316 311 312 314 314 313 316 316 317 317 316 317 306 303 303 303 303 305 306 307 308 309 310 311 313 315 316 318 319
314 315 315 316 315 316 316 316 316 317 313 310 312 311 312 314 314 314 316 317 317 312 306 305 304 303 302 302 302 302 302 303 304 306 308 310 312 313
313 314 314 315 314 314 315 314 314 314 314 312 311 312 312 313 314 316 316 316 319 313 306 303 301 300 298 297 297 297 297 298 298 299 300 300 302 304
314 314 315 315 314 314 314 314 314 313 313 312 311 311 312 314 314 314 314 316 316 316 303 297 296 294 294 294 294 294 295 295 295 295 294 293 294 297
312 312 311 302 296 298 310 313 313 312 311 310 310 311 312 312 306 299 302 303 298 295 301 298 295 293 291 291 292 292 292 292 292 292 292 292 291 292
302 302 297 295 290 289 289 287 289 296 301 301 304 296 294 291 290 292 294 296 296 289 292 295 292 287 287 288 289 290 290 290 290 290 290 290 290 289
290 292 293 292 293 289 287 286 286 286 285 292 285 284 284 284 285 289 290 290 291 285 287 289 288 285 286 287 288 289 289 289 289 289 289 289 288 288
286 287 287 289 291 288 285 284 283 284 284 284 283 282 283 284 285 287 287 287 285 283 283 284 284 282 283 284 287 287 287 287 286 286 286 286 286 288
284 285 285 285 287 287 284 282 281 281 286 286 286 285 284 284 284 284 283 285 284 282 279 280 285 285 284 284 285 286 286 286 286 285 285 285 284 284
283 283 285 285 286 286 283 282 281 282 284 284 283 284 284 283 283 280 281 281 282 281 276 279 283 283 282 285 285 280 280 285 286 285 285 285 284 278
280 280 282 285 285 285 285 284 283 285 284 283 282 282 282 281 278 277 277 276 277 277 275 279 282 281 281 282 285 281 278 278 278 281 285 284 283 282
280 281 281 283 283 283 283 284 284 284 283 282 280 278 275 274 276 276 276 276 275 275 275 275 274 274 273 274 276 279 279 277 277 278 276 281 281 281
281 282 282 282 282 280 282 282 278 280 280 279 275 272 273 274 275 277 278 279 279 278 279 277 275 275 273 272 272 274 276 275 276 275 276 275 274 275
282 282 281 281 277 276 277 277 277 275 274 272 272 273 274 275 274 275 275 276 276 276 279 278 277 276 274 275 274 273 274 272 274 275 275 275 276 276
282 281 280 279 276 275 275 274 274 274 273 272 272 272 273 274 275 275 275 275 272 272 272 276 276 276 276 276 272 273 272 272 273 274 274 273 274 275
279 277 275 274 273 273 272 272 272 271 272 273 271 272 272 273 273 274 274 271 271 272 272 273 273 273 273 274 277 272 272 272 273 274 273 271 271 273
275 274 272 272 272 273 272 271 270 271 273 271 269 269 270 272 271 272 272 271 270 270 272 272 272 270 263 261 271 276 271 272 272 271 272 271 270 272
273 272 271 270 271 271 271 270 269 268 267 269 266 265 266 269 268 269 269 265 268 270 270 271 270 269 264 261 263 270 277 272 270 270 271 272 273 276
271 271 269 269 270 270 266 266 266 264 263 263 265 266 263 267 266 266 266 265 265 269 268 268 270 271 272 271 262 264 270 276 275 272 272 271 270 270
269 269 269 269 267 267 266 263 264 265 263 265 264 261 261 264 264 263 264 262 266 267 268 269 270 270 270 269 267 265 268 270 274 276 275 273 269 266
267 269 267 265 265 266 267 266 264 264 264 263 263 263 260 263 264 264 264 265 266 266 266 266 267 268 268 268 267 267 267 268 270 268 269 274 274 274

GFSNE_sfc_thetae_093.txt.gz
Theta_e
321 321 320 319 319 318 317 315 312 307 310 313 315 320 321 321 319 318 317 312 306 306 305 308 310 312 313 314 315 317 319 320 320 321 321 322 323 324
321 320 320 318 318 317 316 316 314 309 306 311 313 316 321 322 320 321 321 314 307 305 304 305 307 309 310 311 311 312 314 315 316 317 318 319 320 321
319 320 319 318 317 317 316 316 314 314 309 311 312 314 314 316 316 317 316 317 317 306 304 304 304 304 305 306 307 307 308 309 310 312 313 315 316 318
319 319 317 316 316 315 315 315 315 315 312 309 312 312 311 312 313 314 314 316 316 311 306 301 300 299 299 298 298 299 299 300 300 301 303 305 306 308
315 314 315 315 313 314 313 313 314 314 313 311 311 312 313 313 313 313 314 315 317 311 298 295 296 295 296 295 295 296 296 296 296 295 294 294 296 298
314 313 313 313 313 313 313 313 313 313 312 312 311 311 311 312 312 310 311 304 301 305 297 295 294 294 294 294 294 294 294 294 294 293 293 292 291 293
313 310 301 298 295 297 312 313 312 312 311 310 310 310 309 300 299 297 299 301 293 292 299 295 292 291 291 291 292 292 292 292 292 292 291 291 290 290
300 297 295 291 289 289 289 288 289 300 306 305 299 296 290 289 291 291 294 296 295 287 290 290 290 287 287 289 290 290 290 290 290 289 289 289 289 289
291 293 293 290 289 288 287 286 286 286 287 292 287 285 284 284 286 289 289 290 286 283 285 286 288 284 287 288 289 288 288 287 287 287 286 286 286 287
287 288 290 290 288 286 285 284 284 284 284 284 283 283 283 284 285 287 288 285 284 281 281 283 283 282 284 282 287 287 287 287 286 286 286 285 285 285
286 286 286 286 286 287 284 282 283 283 286 286 285 285 284 284 284 285 283 285 283 279 274 280 283 276 283 284 284 287 286 286 286 286 286 286 285 284
284 285 286 285 286 285 284 283 282 282 283 282 282 283 281 280 283 277 275 277 274 275 273 279 281 278 276 284 282 280 276 285 286 286 286 284 283 276
281 282 284 285 286 286 286 284 283 283 282 281 277 275 274 275 275 276 275 274 273 269 273 271 276 271 271 275 276 282 275 276 276 278 282 282 281 280
280 281 282 284 284 283 283 284 284 283 281 275 273 271 272 273 273 272 272 272 270 272 272 272 269 270 268 269 271 275 275 275 275 275 274 278 279 279
281 282 282 281 280 280 280 280 277 275 273 273 271 270 267 268 273 275 276 276 276 278 278 277 273 274 271 269 270 271 273 273 274 273 273 274 274 275
281 280 278 278 276 275 275 276 275 275 273 272 271 268 271 273 273 274 273 275 274 275 278 276 275 275 273 274 274 273 273 271 273 273 274 273 273 274
279 278 276 275 274 273 273 273 272 272 271 271 270 271 272 273 273 274 274 273 269 270 271 274 276 275 274 275 271 272 271 271 272 273 273 271 272 272
276 274 272 272 272 272 271 270 270 270 271 271 270 270 270 271 272 272 272 270 268 270 270 272 271 271 271 272 274 270 270 270 272 273 273 270 270 273
272 271 271 270 271 271 271 270 268 269 271 269 269 268 268 270 269 270 270 269 268 269 270 271 270 268 262 260 270 275 270 271 271 270 271 271 269 271
271 270 269 269 270 270 269 268 267 267 266 267 265 263 262 266 265 266 267 263 266 269 268 269 268 268 263 258 261 268 276 271 269 269 269 271 272 275
270 269 269 269 269 269 265 265 262 260 260 260 261 262 258 263 261 263 264 262 263 267 266 266 267 269 270 269 261 262 268 274 273 270 271 268 267 268
268 268 267 266 265 267 265 256 260 259 259 261 256 256 258 260 260 261 262 262 264 264 266 266 268 268 268 266 265 262 266 268 272 274 273 271 267 264
264 267 264 261 261 260 263 260 260 258 258 258 258 259 256 262 261 260 263 263 264 264 264 264 265 266 266 266 265 264 265 265 267 266 267 271 272 273

GFSNE_sfc_thetae_096.txt.gz
Theta_e
321 321 320 319 318 317 317 315 312 307 309 312 314 318 318 318 316 314 315 309 306 304 305 307 310 312 313 315 316 317 319 321 321 322 322 323 323 323
321 320 320 320 318 317 317 315 313 311 308 313 314 317 319 320 317 319 319 313 305 304 304 304 305 308 309 310 311 312 314 315 317 317 318 319 320 320
320 320 319 319 317 316 316 316 314 313 308 310 312 313 315 317 318 318 318 319 318 306 304 304 302 302 303 303 304 305 307 308 308 308 308 309 311 312
319 319 318 317 316 315 315 314 314 315 312 308 311 311 311 313 314 313 314 316 317 303 298 297 297 297 296 297 297 298 298 299 299 299 299 300 301 302
318 318 318 317 315 314 313 313 314 313 313 311 310 312 312 312 312 313 313 314 303 298 295 295 295 295 295 295 295 296 296 295 294 294 293 293 294 296
315 315 317 316 314 313 313 312 312 312 312 311 310 311 311 312 312 309 309 300 300 299 295 293 293 294 294 294 293 293 293 293 293 292 291 291 291 292
305 302 299 299 296 300 313 312 312 311 310 310 309 308 308 302 304 298 301 300 290 290 294 293 291 291 291 292 292 292 292 291 291 291 290 290 289 289
297 294 293 291 290 289 289 288 290 307 309 309 306 303 292 291 291 293 295 296 293 286 290 288 289 287 288 289 290 289 289 288 288 288 287 287 287 288
294 294 291 289 289 288 287 287 286 286 286 295 290 287 286 285 287 290 290 290 284 282 285 285 287 284 287 288 288 288 288 287 287 287 286 286 286 285
289 291 289 287 287 287 285 284 284 284 284 284 283 283 283 285 286 288 288 283 282 280 281 283 283 279 284 285 287 287 287 287 286 286 286 286 285 284
286 286 286 286 287 288 284 283 282 283 285 285 285 284 284 284 285 286 285 285 282 274 273 280 275 275 283 283 284 287 287 287 286 286 286 284 283 282
284 285 286 285 286 286 284 283 280 281 281 280 280 280 281 281 281 278 275 276 278 269 272 278 274 271 273 285 279 279 275 283 284 283 283 282 281 275
282 283 284 286 286 286 285 283 281 281 280 278 277 277 277 276 277 276 274 275 272 269 271 272 267 267 267 269 272 277 273 273 273 275 278 279 279 278
280 281 282 284 284 283 283 283 282 279 277 275 274 273 273 273 274 274 273 273 273 272 272 272 269 269 267 267 268 273 272 272 272 273 273 276 277 277
280 280 280 279 279 279 279 278 276 275 274 272 271 271 269 269 273 276 277 277 278 278 278 276 273 274 270 268 269 271 272 273 273 273 273 273 273 273
278 277 276 276 274 274 274 275 274 272 272 272 272 273 275 275 273 274 273 273 272 273 276 276 275 275 272 273 273 271 272 270 272 272 273 273 273 273
277 276 274 273 272 272 272 272 273 273 271 271 271 271 272 273 273 273 272 271 269 269 270 273 274 275 274 274 270 270 270 270 271 272 273 271 271 272
274 272 271 271 271 271 270 270 271 271 271 271 270 270 270 271 271 271 271 269 269 270 270 271 270 270 271 271 273 270 269 269 271 272 272 269 269 272
271 271 270 270 270 270 270 269 268 269 270 268 266 266 268 269 269 269 268 268 268 269 269 270 269 267 261 257 269 274 269 270 270 269 269 269 268 270
270 269 269 269 270 269 269 268 267 267 266 266 264 262 262 266 265 266 266 263 266 268 268 268 266 266 262 257 259 265 274 269 268 267 268 270 269 273
269 268 268 268 268 267 265 264 263 261 261 259 260 261 258 263 261 263 263 262 263 266 265 265 266 268 269 267 258 260 266 272 271 269 269 266 265 266
267 266 266 265 264 264 260 260 261 260 260 261 257 257 256 260 259 260 259 258 262 262 264 265 267 267 266 265 263 259 264 266 269 271 271 270 265 263
263 264 261 260 260 260 263 260 259 258 257 257 257 256 251 256 258 257 257 259 261 261 263 263 264 265 264 264 263 262 263 263 265 264 265 270 271 271

GFSNE_sfc_thetae_099.txt.gz
Theta_e
321 321 320 318 318 318 317 315 311 306 308 311 312 316 318 318 315 315 315 309 306 304 304 306 310 312 313 314 315 316 319 320 321 322 322 323 323 324
321 321 320 319 317 318 317 316 314 311 307 313 314 315 317 317 315 315 314 309 304 304 303 304 305 307 308 309 310 311 312 313 315 316 316 316 316 317
320 320 319 320 318 317 317 316 314 312 309 310 313 313 315 316 315 318 317 316 313 304 303 302 301 301 301 302 302 304 305 306 306 306 306 307 308 309
319 320 319 319 317 317 317 316 314 313 311 308 310 310 312 314 315 315 316 315 304 298 297 297 297 296 296 297 297 297 297 297 297 297 298 299 300 301
317 319 318 318 316 316 315 314 315 313 313 310 309 311 311 312 311 312 311 301 299 297 295 295 296 295 295 295 295 295 295 294 294 293 293 293 294 296
315 317 318 318 316 315 314 314 313 313 311 310 310 310 311 312 312 309 303 301 296 296 294 294 294 294 294 294 294 294 293 293 293 292 291 290 290 291
300 299 298 302 302 307 314 313 313 311 310 309 308 308 308 306 306 301 302 293 289 292 292 291 291 291 291 292 292 292 291 291 290 289 289 288 288 289
297 295 293 292 290 290 290 288 293 310 309 309 308 306 299 296 294 296 297 293 290 286 289 286 289 287 288 289 289 289 289 288 288 288 287 287 286 285
293 292 291 290 289 288 287 287 286 286 286 301 298 291 289 288 290 291 291 289 284 282 286 284 286 285 286 288 288 288 288 287 287 287 286 286 285 284
288 288 287 287 287 287 286 284 283 284 284 284 283 283 285 285 287 289 286 282 281 280 281 282 283 283 285 285 288 288 288 287 287 286 287 285 283 282
286 286 286 286 287 288 284 282 281 281 284 285 284 284 285 286 287 287 284 284 281 277 277 282 279 281 283 283 284 285 285 286 286 285 284 283 282 280
284 285 286 285 286 285 283 282 278 278 279 279 279 280 280 281 281 280 284 282 278 275 276 276 274 274 279 283 279 275 275 280 280 281 280 280 280 275
282 282 284 285 285 285 283 280 279 279 278 277 277 277 278 278 278 277 277 277 274 272 274 274 271 270 271 271 275 273 272 272 273 275 278 278 279 277
279 280 282 283 283 282 280 280 279 277 277 275 274 274 274 274 275 276 276 276 277 275 276 276 274 273 271 271 270 273 272 272 272 273 273 276 277 277
278 279 279 279 279 278 278 277 276 275 274 272 272 272 273 275 276 277 278 277 277 277 278 277 276 275 274 272 271 272 272 273 273 273 274 274 273 273
276 275 276 275 274 274 274 274 274 273 273 272 272 273 275 274 273 274 274 274 273 273 275 275 276 275 273 273 272 271 271 270 272 272 273 273 273 273
275 274 273 273 272 272 272 272 272 272 271 272 272 272 273 272 272 273 272 272 270 270 270 272 273 274 274 273 270 270 270 270 271 272 272 270 270 272
273 271 270 270 270 270 270 270 270 270 270 270 270 271 270 271 270 271 271 270 269 269 269 270 269 269 270 271 274 270 270 269 270 270 270 267 268 271
271 270 269 269 269 270 270 269 268 268 268 267 267 267 269 269 269 268 268 269 269 268 268 268 267 266 263 261 268 273 268 269 268 267 268 268 267 269
270 269 268 269 269 268 268 267 266 265 265 265 264 264 265 266 266 266 266 265 267 267 266 266 266 265 263 259 259 265 272 268 266 266 266 268 268 271
268 268 268 267 267 266 264 263 262 261 261 259 260 261 259 263 263 263 263 263 264 265 264 264 265 267 268 266 256 259 265 271 270 267 267 264 264 265
265 265 265 265 265 263 260 260 259 258 258 259 255 255 255 260 260 260 259 260 263 263 264 265 266 266 265 264 262 256 262 264 268 270 270 269 264 262
262 262 260 260 260 260 262 259 258 257 257 257 256 256 251 257 259 257 257 260 261 261 262 262 263 264 263 263 262 260 261 261 263 263 264 269 270 271

GFSNE_sfc_thetae_102.txt.gz
Theta_e
322 322 321 321 319 318 318 317 313 308 309 312 311 318 319 319 316 317 317 309 306 305 305 307 310 312 313 314 316 317 319 320 321 321 321 321 322 322
322 321 321 321 318 318 317 317 316 312 308 313 314 316 318 318 316 317 316 310 305 303 303 304 305 307 308 309 310 310 312 313 313 314 315 315 316 316
320 320 320 321 318 317 317 317 315 313 309 310 314 315 315 316 315 315 314 315 305 302 302 302 301 302 302 303 304 305 305 306 306 306 306 307 308 308
317 318 318 319 318 318 316 316 315 315 311 308 310 311 313 316 315 316 314 306 301 298 298 297 297 297 297 297 297 298 298 298 298 299 300 301 301 302
317 317 317 319 318 317 316 315 315 314 313 310 308 311 311 314 313 309 302 299 298 297 295 295 296 296 296 296 296 295 295 294 293 293 293 294 295 296
308 310 314 318 319 318 316 316 315 313 313 312 310 310 312 312 312 305 300 299 295 295 294 294 295 295 294 294 294 294 294 293 292 291 290 290 290 291
299 297 294 297 302 308 316 316 315 313 312 311 309 309 309 309 308 306 299 293 291 294 292 291 291 291 291 292 292 291 291 290 290 289 288 288 287 288
295 293 292 291 290 290 290 289 297 313 311 310 309 307 304 302 299 302 293 291 289 288 288 287 289 287 288 289 290 289 289 289 288 288 287 286 285 284
290 290 290 290 289 289 288 288 287 287 288 304 305 298 295 291 294 294 294 291 285 283 287 284 286 284 287 288 288 288 288 288 287 287 286 285 284 283
287 287 287 287 287 287 286 284 284 284 285 285 285 285 285 286 288 290 286 282 282 281 283 282 284 283 285 286 288 288 288 287 287 287 285 283 282 281
286 286 285 285 287 287 283 281 280 280 284 285 284 284 285 286 288 287 285 284 280 277 278 282 279 282 283 280 282 287 286 284 284 283 282 282 281 279
284 284 286 285 285 284 282 280 277 277 279 280 279 279 279 280 282 282 286 280 277 276 277 278 277 279 280 279 278 278 279 280 280 280 280 280 280 279
282 282 283 284 284 283 281 279 277 278 278 278 278 277 277 277 277 278 278 278 276 274 276 277 276 276 276 277 278 276 277 276 276 277 277 278 278 278
278 280 281 282 282 281 280 280 279 277 276 275 275 274 275 276 277 277 277 277 278 277 278 279 276 276 275 274 274 276 276 276 275 275 276 276 277 277
277 279 279 279 279 278 278 277 276 275 274 273 273 273 274 276 277 277 277 277 276 276 277 277 277 276 275 274 273 273 273 274 275 274 274 275 275 275
276 275 276 275 274 274 274 275 274 274 274 273 273 274 275 274 274 275 274 275 274 273 275 275 275 275 274 274 273 271 272 271 273 273 274 274 274 274
275 274 273 273 272 272 272 272 272 272 272 272 273 273 272 272 272 273 273 273 272 270 270 272 273 274 274 274 271 271 271 271 272 271 271 270 271 272
273 271 270 270 270 270 270 269 270 270 270 271 271 271 271 271 270 271 272 271 270 270 269 269 269 270 271 272 274 270 270 270 270 270 270 268 269 271
270 269 269 269 269 269 269 268 267 267 269 268 268 269 270 270 269 269 269 270 269 268 268 268 268 267 264 264 268 273 268 269 268 268 268 268 268 269
269 268 268 268 268 267 267 266 265 265 265 265 265 265 266 267 267 267 267 267 268 268 267 266 266 266 264 264 264 268 271 268 267 266 267 268 269 271
267 267 267 266 266 265 263 262 261 261 261 261 261 262 262 265 264 265 265 264 265 266 264 264 266 268 268 267 263 263 266 269 269 267 267 266 265 266
265 265 265 265 264 262 260 260 259 259 260 261 258 258 259 262 261 262 262 263 263 264 264 265 266 266 265 264 262 262 264 265 267 269 269 269 266 264
261 262 261 261 261 261 262 259 259 259 259 258 259 258 256 260 261 261 261 262 262 262 262 263 264 264 263 264 262 262 262 263 264 264 266 268 270 270

GFSNE_sfc_thetae_105.txt.gz
Theta_e
323 323 323 324 325 324 321 319 316 310 310 314 314 320 321 322 321 323 323 310 306 306 306 308 310 313 314 315 317 318 320 321 322 322 322 322 322 322
322 322 322 324 323 324 323 323 320 316 311 316 315 317 320 321 321 324 323 312 305 304 303 304 306 308 309 310 311 313 314 314 315 315 315 315 316 315
321 321 321 323 321 321 322 321 319 320 315 314 316 316 317 319 322 323 323 322 313 303 302 302 302 303 304 305 306 307 308 308 308 309 309 310 311 309
322 322 322 321 321 320 319 317 319 318 318 310 314 314 315 318 322 321 318 313 307 299 299 299 298 298 298 298 299 299 300 300 301 302 303 304 304 304
320 321 318 318 317 318 317 317 318 316 316 312 310 312 314 318 316 309 305 303 300 298 296 296 296 296 296 296 296 296 295 295 295 295 295 296 297 297
309 304 301 301 307 318 317 317 316 315 315 312 311 311 312 315 311 302 299 300 297 297 296 295 295 295 295 295 295 294 294 293 292 292 291 291 291 292
300 297 295 293 292 297 317 317 316 315 314 312 311 311 311 310 306 305 299 294 293 295 293 293 292 293 293 293 293 292 291 290 290 289 288 288 287 287
297 295 294 292 291 289 290 289 290 314 312 312 311 310 310 310 305 302 293 292 289 293 289 287 290 287 288 289 290 290 289 289 288 287 286 285 285 284
293 293 291 291 290 289 288 288 287 287 288 303 310 306 302 298 301 297 296 294 287 287 288 284 286 284 287 288 289 288 288 288 288 286 285 284 283 282
288 289 289 288 287 287 285 284 284 284 285 286 285 285 286 287 291 293 288 283 284 282 286 282 285 283 285 287 288 288 288 288 287 285 284 283 282 281
286 287 286 286 286 287 285 282 281 281 284 285 284 284 285 287 289 289 287 286 282 279 280 283 283 282 280 280 285 287 286 284 284 283 282 281 281 280
284 284 285 284 284 284 283 281 278 278 280 280 279 279 280 281 282 284 287 283 280 279 278 280 279 282 276 278 279 281 281 281 281 280 280 280 279 283
281 281 283 283 283 283 282 280 278 279 279 279 278 278 278 277 277 278 279 281 278 275 278 279 278 280 281 278 279 281 282 281 282 281 278 278 278 278
278 279 281 282 281 281 280 280 279 279 278 277 276 275 275 275 276 277 277 278 278 278 279 281 278 281 282 280 279 280 281 281 281 280 280 278 277 277
278 278 279 279 279 278 279 278 278 277 276 275 274 274 276 277 278 277 278 278 277 278 278 279 279 279 280 279 277 276 276 277 277 277 278 278 278 278
277 277 277 276 276 276 277 277 277 277 277 276 275 276 278 277 277 278 276 276 275 274 276 277 278 278 276 277 277 274 276 275 277 276 276 276 278 278
277 277 276 276 275 275 275 275 276 277 276 276 276 276 275 276 275 277 277 276 275 273 273 274 275 277 277 276 273 274 275 275 276 274 274 274 276 277
276 275 274 274 274 274 273 273 274 274 275 275 275 275 274 274 274 275 275 274 273 272 271 272 273 273 274 274 275 273 274 274 274 273 273 272 273 276
274 273 272 273 273 273 272 272 271 272 272 273 274 274 274 273 273 273 273 273 272 271 271 271 271 272 272 271 272 273 272 272 272 272 272 272 272 273
273 272 271 271 271 271 271 270 270 271 271 271 271 271 272 272 272 271 272 272 271 270 270 270 270 269 269 269 270 272 271 270 271 270 270 272 274 274
271 271 271 271 270 269 269 269 269 268 268 269 269 269 270 271 270 270 269 268 269 270 268 268 269 268 271 272 270 270 271 270 270 269 270 270 271 272
270 270 270 270 269 269 268 268 268 268 268 268 267 268 269 270 269 268 269 269 269 269 268 270 270 270 270 268 267 267 269 270 271 270 270 269 270 269
269 269 269 269 269 268 268 267 267 267 266 267 267 267 267 267 268 268 268 268 268 267 268 268 269 269 268 267 265 267 266 267 268 269 271 269 270 270

GFSNE_sfc_thetae_108.txt.gz
Theta_e
331 329 326 326 327 327 323 322 317 311 313 320 320 323 325 325 321 320 323 310 306 306 307 309 312 314 315 316 318 319 321 322 323 324 324 324 325 324
329 329 326 327 326 327 328 326 324 317 314 322 322 325 323 321 318 323 323 312 306 304 304 305 307 310 311 312 313 314 316 318 319 319 319 318 318 318
328 328 324 328 324 325 327 326 324 323 316 318 323 326 322 322 320 321 322 323 322 304 303 303 303 304 305 306 308 309 311 312 312 313 313 314 314 313
325 323 324 323 322 323 322 323 323 323 321 315 318 321 322 320 319 318 320 322 322 301 302 301 301 301 301 301 301 302 303 304 305 306 308 310 310 309
324 325 324 324 323 325 324 321 320 321 319 317 315 319 320 318 317 312 307 303 301 299 297 297 298 298 297 297 298 297 297 297 297 297 298 300 301 301
319 319 315 312 308 309 314 319 318 317 317 316 315 314 316 316 310 301 299 300 299 298 298 297 296 296 295 295 295 295 295 294 294 293 293 292 293 293
309 305 301 295 291 293 302 311 317 316 315 314 312 312 312 312 307 304 299 295 295 295 294 294 295 294 294 294 294 293 293 292 292 291 290 289 288 288
300 299 297 295 293 289 289 288 289 305 314 313 312 310 310 311 309 301 293 291 288 293 290 288 290 288 290 290 291 291 290 290 289 288 287 286 286 285
295 296 295 293 293 293 289 288 287 287 287 299 311 306 309 310 307 299 297 296 290 289 287 284 286 285 287 289 290 289 289 288 287 286 285 284 283 283
288 289 289 289 288 288 287 286 284 285 285 286 285 285 286 288 302 302 296 285 285 285 287 283 285 284 285 287 288 288 288 287 286 285 284 283 282 281
285 286 286 285 286 288 285 284 283 283 284 285 285 285 286 286 289 292 289 288 285 282 282 284 283 280 281 282 286 288 287 286 285 284 283 282 280 281
283 283 284 284 284 284 283 282 278 279 280 281 280 280 280 281 283 284 289 288 282 281 281 282 281 280 276 279 281 282 282 283 282 282 281 280 279 285
280 280 282 283 283 283 282 280 280 281 279 279 278 278 277 277 277 278 279 281 279 276 279 282 280 282 279 276 279 281 281 280 281 282 279 279 278 278
278 279 280 282 282 281 281 281 280 280 279 278 277 276 276 276 276 277 277 278 279 279 281 283 281 283 280 279 278 281 282 283 283 283 284 280 279 278
280 280 280 280 280 279 280 280 280 280 278 277 276 276 277 278 278 278 278 277 277 278 280 282 282 283 284 282 281 281 280 281 281 281 281 281 281 281
281 281 280 279 279 280 280 281 281 281 280 280 279 280 280 280 279 280 278 278 277 275 278 280 281 281 280 280 279 277 278 277 279 278 278 279 280 281
282 282 281 281 279 279 279 280 282 281 281 281 281 280 280 280 280 281 280 279 277 276 276 276 279 280 279 278 276 277 276 277 278 278 277 277 279 281
280 279 278 279 278 278 277 277 279 279 280 280 280 279 279 278 278 278 279 278 276 275 275 275 276 276 275 275 276 276 276 276 277 276 276 275 276 280
279 278 278 278 277 276 276 276 275 276 277 278 278 278 278 277 278 277 277 277 275 275 274 275 276 276 274 274 274 274 275 275 275 275 276 275 275 277
277 277 276 276 276 275 275 275 275 276 276 276 276 277 277 277 277 276 277 276 275 274 274 274 274 274 275 275 274 275 271 273 274 274 274 275 277 277
275 275 276 275 275 274 274 274 273 273 274 275 275 275 276 276 275 274 273 272 273 274 273 272 272 270 274 274 274 274 275 271 271 271 272 273 274 276
275 274 274 274 274 274 274 274 274 274 273 273 273 274 275 275 273 273 274 274 273 274 272 273 273 273 273 272 272 271 274 274 274 272 272 271 273 272
274 274 274 274 274 273 273 272 272 272 271 272 272 272 273 272 273 273 273 272 272 271 271 271 272 273 272 271 269 272 269 271 273 273 275 272 271 272

GFSNE_sfc_thetae_111.txt.gz
Theta_e
335 335 333 332 332 329 329 325 321 313 315 321 323 327 326 327 324 326 323 309 306 306 308 311 313 315 316 317 318 319 320 321 322 323 323 324 325 325
333 331 331 331 330 330 328 328 326 321 317 322 324 327 327 325 321 325 323 311 305 304 304 306 309 311 312 313 314 315 316 318 319 320 322 323 324 323
330 329 329 330 329 328 328 327 327 325 319 322 325 328 327 324 323 323 322 320 314 304 303 304 304 305 307 308 309 310 312 313 315 316 318 319 319 320
328 328 328 328 328 328 328 327 326 326 322 319 323 325 324 323 322 320 321 321 320 304 303 303 303 302 302 303 304 304 305 306 307 309 310 313 314 315
328 328 327 327 325 326 326 324 326 325 323 321 319 322 324 321 320 316 307 302 301 300 298 299 300 301 301 300 301 301 301 301 301 301 302 303 305 307
326 326 323 321 321 320 319 321 322 321 320 318 317 318 318 320 317 305 300 300 298 299 297 297 297 298 299 297 297 297 297 297 296 295 294 294 295 296
313 309 301 296 292 292 302 307 312 315 316 315 315 314 313 313 304 305 299 294 294 295 294 294 295 295 295 297 297 295 295 294 294 293 292 291 290 290
302 299 296 294 290 289 289 288 288 295 306 314 314 312 311 312 309 301 294 292 289 294 288 285 289 288 290 292 293 292 292 292 291 290 289 288 287 286
298 296 295 293 294 294 289 288 286 286 286 291 302 299 306 310 307 300 297 296 290 289 289 284 285 284 287 289 290 290 289 289 288 287 286 285 285 284
288 289 289 288 288 290 288 286 284 284 284 285 285 285 285 287 302 302 298 286 286 286 288 283 285 284 285 286 289 288 287 287 286 285 285 284 283 283
285 285 285 285 286 288 286 284 283 283 284 284 284 284 284 286 291 293 289 288 285 283 284 284 283 280 281 284 286 287 286 286 285 285 284 283 282 282
282 283 284 284 284 284 283 281 279 279 280 280 280 280 280 281 283 285 289 290 284 282 283 282 280 280 277 280 282 284 284 285 284 284 283 281 280 281
280 280 282 283 284 283 282 281 280 281 280 279 278 278 278 277 278 279 281 284 280 278 281 284 282 280 279 277 280 280 280 280 281 281 281 280 279 279
278 279 281 283 283 283 282 282 281 281 279 278 277 276 276 276 276 277 278 279 281 280 283 285 282 281 278 277 277 280 281 282 282 281 281 280 280 279
280 281 282 283 283 282 282 283 283 281 279 277 276 276 278 279 279 279 279 279 279 280 283 284 284 283 283 281 278 280 280 281 282 281 281 281 281 281
284 284 283 282 282 282 283 283 283 283 282 281 281 281 282 282 281 280 278 277 276 276 280 282 283 283 281 282 282 280 281 277 279 279 278 279 280 282
283 283 282 283 281 282 281 281 282 282 281 282 282 281 280 280 280 281 280 279 277 275 276 278 280 281 280 280 277 278 277 277 278 277 276 277 280 281
281 279 279 279 278 279 279 279 279 279 280 281 281 280 280 280 279 280 280 279 276 276 275 276 276 275 276 276 277 277 277 277 277 276 276 275 276 281
279 278 278 278 277 277 277 277 277 278 279 279 279 279 279 279 279 279 278 277 276 276 276 277 277 277 275 274 274 275 276 275 275 275 276 276 276 277
277 277 276 276 276 275 275 276 276 277 277 277 278 278 279 278 278 278 278 277 276 275 275 275 275 276 277 276 274 274 272 274 275 275 275 276 277 278
276 275 276 275 275 275 276 275 275 274 275 276 276 276 277 277 276 275 274 274 275 275 274 273 272 271 275 276 274 274 274 272 272 272 273 272 273 275
276 276 275 275 275 275 275 275 275 275 275 275 274 275 276 276 275 275 275 275 275 274 273 273 274 274 274 273 272 272 274 274 275 274 273 272 272 271
274 275 275 275 275 275 274 274 273 273 272 273 273 273 274 274 274 274 274 273 273 272 272 272 273 273 272 272 270 272 271 272 273 273 274 274 274 273

GFSNE_sfc_thetae_114.txt.gz
Theta_e
330 329 328 328 328 327 325 323 317 310 311 317 317 323 324 326 323 320 321 309 307 307 309 312 315 316 316 317 318 319 320 320 320 321 321 322 324 325
327 326 325 323 327 326 324 322 320 315 310 317 318 321 323 324 320 325 324 310 306 305 306 307 310 312 313 313 314 315 316 317 318 319 320 321 323 324
329 327 324 320 326 324 325 324 322 320 315 316 319 322 321 320 321 322 324 318 312 305 304 304 305 307 308 309 309 311 312 313 315 316 318 319 322 323
327 327 325 326 323 325 324 322 321 320 317 314 318 318 318 321 321 320 321 322 320 307 304 303 303 303 304 305 305 306 307 308 309 311 312 315 318 319
327 325 324 324 324 324 323 322 320 321 318 315 314 317 320 321 320 318 316 304 304 303 301 301 301 302 302 301 303 303 303 304 304 304 305 306 308 310
325 323 321 319 318 318 317 316 316 317 318 317 316 316 316 319 320 308 301 301 299 298 298 298 299 300 300 300 300 301 302 301 301 300 298 297 298 300
306 300 296 294 293 296 306 299 301 307 311 313 313 314 314 313 309 308 301 294 293 295 294 294 296 296 297 298 300 300 299 298 297 296 295 294 294 294
297 294 293 291 289 289 289 288 287 291 297 303 311 311 313 314 311 306 294 292 290 293 288 286 290 289 291 293 294 295 295 295 294 294 292 291 290 290
297 295 294 293 291 288 287 286 286 286 285 287 294 287 289 293 301 302 298 298 290 289 289 284 286 285 289 290 291 291 291 291 290 289 288 287 287 286
287 287 288 288 290 288 285 283 283 283 283 283 283 282 284 286 289 300 297 286 287 286 287 282 285 283 285 286 289 289 288 287 287 286 286 285 285 284
284 285 285 285 288 289 284 282 280 280 283 284 284 283 283 285 287 293 288 288 285 284 285 284 283 280 283 283 285 287 287 286 286 285 285 284 284 283
282 283 285 284 285 284 282 281 278 278 279 279 279 279 280 280 282 282 287 290 284 283 284 282 280 280 277 280 284 284 284 285 285 285 284 283 282 282
280 281 283 284 284 284 282 280 279 280 279 279 278 278 278 278 278 279 281 283 282 278 282 284 282 280 279 277 279 281 282 281 281 282 282 281 280 280
279 281 283 284 284 284 282 282 281 280 279 278 278 277 277 277 278 278 279 281 283 283 284 285 281 279 278 276 276 279 279 280 280 279 279 280 280 280
282 283 283 284 284 283 284 283 283 281 279 278 278 278 279 280 280 279 280 281 281 281 284 284 282 281 281 278 277 278 278 281 282 280 279 280 280 279
282 282 282 282 282 281 281 282 282 282 280 279 279 280 281 281 279 280 279 279 277 277 280 280 283 284 280 280 280 278 280 277 279 279 279 279 280 281
280 279 278 278 278 278 278 278 280 280 279 280 280 280 279 279 280 280 279 277 275 275 275 277 278 278 277 280 277 278 278 277 278 277 277 277 279 281
278 276 276 275 275 275 275 276 277 277 278 279 278 278 278 279 278 279 279 277 275 275 275 276 277 277 277 277 279 277 277 277 277 277 276 275 276 280
275 275 274 274 274 274 275 275 275 276 278 277 277 277 277 278 278 277 277 277 275 275 276 277 277 276 273 271 274 276 275 276 275 275 276 275 275 276
274 273 273 273 274 274 273 273 273 274 275 275 275 276 275 275 275 274 274 273 274 274 274 274 273 273 273 272 271 271 275 275 274 274 274 275 275 278
274 273 273 273 273 273 273 273 271 271 272 273 274 274 274 274 273 273 272 270 271 274 271 270 270 271 275 275 267 269 272 274 273 271 271 269 270 272
272 273 273 272 272 271 272 269 271 270 271 271 269 271 272 273 271 271 271 270 271 271 271 271 273 274 274 273 270 266 271 271 274 275 274 272 267 263
270 271 271 271 270 271 271 269 268 270 267 267 268 269 267 268 270 270 268 269 269 270 271 270 271 272 271 270 268 267 268 267 271 271 272 275 275 275

GFSNE_sfc_thetae_117.txt.gz
Theta_e
330 329 327 327 326 323 323 321 317 310 311 313 314 320 325 325 323 322 324 312 308 307 308 312 315 317 316 317 318 319 319 319 320 320 320 322 322 323
330 329 327 326 323 323 322 322 320 314 311 314 316 317 321 322 319 322 320 312 306 304 305 308 311 313 313 314 314 315 316 317 318 318 319 319 321 322
329 327 325 323 322 321 321 318 321 320 315 313 316 317 317 319 318 319 320 320 313 304 304 305 306 307 308 309 310 311 312 313 314 315 317 318 320 321
327 326 324 322 320 319 321 318 321 321 316 313 314 314 315 318 319 319 319 322 320 306 303 304 304 305 306 305 306 306 307 308 309 310 312 315 317 319
326 326 325 323 318 320 322 322 322 322 319 314 313 313 314 318 317 318 317 312 311 306 302 301 303 304 304 303 303 304 304 305 305 305 306 307 309 312
325 326 325 323 319 320 322 321 319 320 317 317 315 315 316 317 317 311 305 303 300 300 299 300 303 302 302 302 302 302 302 303 304 303 302 301 302 304
308 303 302 303 306 312 314 311 313 311 313 313 312 313 313 313 313 310 309 295 294 296 294 293 297 298 299 300 302 301 300 301 301 301 300 298 298 300
296 293 293 293 293 292 291 289 294 303 305 306 310 310 311 310 311 305 295 294 294 293 289 286 290 289 291 294 297 298 298 298 298 298 298 297 295 295
296 297 293 292 289 287 287 286 286 286 286 292 296 288 290 288 289 301 298 296 292 288 288 285 286 285 288 291 294 294 294 294 293 293 292 292 291 290
287 289 291 289 289 287 285 283 282 283 283 283 282 282 283 285 287 293 295 286 287 286 287 283 284 283 285 287 290 291 290 290 289 289 288 288 287 287
284 285 286 284 287 287 283 280 280 280 284 284 284 283 283 284 286 291 288 289 285 285 285 284 283 281 282 284 285 288 288 287 287 287 287 286 285 285
283 283 285 284 284 284 282 280 277 278 279 279 279 280 280 281 283 282 286 288 284 284 285 282 281 281 278 281 283 284 284 286 286 286 286 286 284 282
281 282 283 284 284 283 282 280 279 280 279 279 279 279 279 279 279 280 282 285 284 280 284 284 282 280 279 277 280 282 283 283 282 282 283 283 284 283
280 282 283 285 285 284 283 283 282 281 280 280 279 278 278 278 279 280 281 282 284 283 284 285 281 280 278 277 276 279 279 280 280 279 279 281 281 281
281 282 282 282 282 281 283 283 282 281 280 279 278 279 279 280 281 281 281 281 280 280 282 284 282 281 281 278 276 277 277 279 280 279 279 279 279 280
279 279 279 279 278 278 279 280 280 280 280 279 278 279 280 280 279 280 278 279 278 277 279 280 282 282 279 279 279 277 279 278 280 279 279 279 280 281
277 277 276 276 275 276 276 277 278 279 278 278 278 279 279 279 278 279 278 277 275 275 276 278 279 279 280 281 278 278 277 277 278 278 277 277 278 279
275 273 273 273 272 273 274 274 275 276 277 278 277 278 278 278 277 277 277 276 274 275 276 277 278 278 278 277 279 277 277 277 278 278 277 275 276 279
273 272 272 272 272 273 272 272 272 274 276 275 275 275 276 276 276 276 276 275 275 276 276 277 277 277 274 271 274 278 276 276 276 275 276 276 275 277
273 271 271 272 272 272 273 272 272 272 273 273 273 273 273 274 273 273 273 272 273 273 271 272 272 273 273 270 270 271 278 275 275 274 274 274 275 278
271 272 271 271 271 271 269 270 268 269 270 269 270 270 270 271 271 271 271 270 272 272 270 269 270 271 275 274 266 268 271 275 274 271 271 269 269 271
268 269 270 269 268 269 269 266 267 266 267 268 266 267 267 269 268 268 268 268 270 270 270 271 273 274 274 273 269 265 270 271 274 274 274 272 269 264
261 266 268 266 266 266 267 267 264 264 264 264 265 265 264 265 267 267 266 267 269 269 270 270 271 272 271 270 270 268 268 267 271 271 272 275 275 275

GFSNE_sfc_thetae_120.txt.gz
Theta_e
327 328 327 327 327 326 324 319 316 306 312 312 315 323 327 326 322 322 322 312 307 306 308 311 314 316 317 318 318 319 320 320 320 321 321 320 322 323
327 326 326 327 326 326 325 323 320 315 310 313 315 316 323 324 321 324 322 312 306 304 304 306 310 312 314 315 315 316 317 317 318 318 319 319 320 321
326 326 327 326 325 324 324 322 320 317 314 312 316 317 317 319 317 320 319 318 314 304 303 303 305 307 308 310 312 312 313 314 314 315 317 318 319 320
323 325 326 327 325 324 323 322 321 320 317 313 313 313 315 316 317 319 320 320 317 305 303 302 303 303 304 306 307 308 307 308 309 310 312 314 317 318
322 322 324 326 324 324 323 321 318 320 319 314 313 315 315 316 315 317 318 316 313 307 302 300 301 302 303 303 305 306 306 306 305 305 306 307 309 312
322 322 324 325 324 322 320 319 317 318 318 318 315 313 313 315 317 313 308 306 306 302 299 297 300 301 301 302 303 305 304 304 304 304 303 302 302 305
316 317 320 321 313 316 319 319 319 318 318 317 316 312 311 313 315 311 312 300 296 297 295 291 294 296 297 300 304 304 303 303 303 303 303 301 300 301
296 296 297 298 301 299 296 294 309 317 316 316 315 314 312 311 310 307 300 297 299 294 290 287 289 288 289 293 295 298 300 300 300 301 301 300 299 299
292 294 291 291 292 293 291 290 289 289 291 304 306 299 299 291 293 300 298 297 296 289 289 284 286 284 286 290 293 296 297 298 298 298 297 296 296 295
285 285 287 288 287 287 288 286 285 284 284 285 286 283 283 285 287 292 294 286 286 286 288 283 284 282 285 286 289 291 293 294 294 294 293 292 291 291
283 284 285 284 286 286 283 283 281 280 284 285 284 284 285 285 286 290 287 288 285 285 285 284 282 280 282 283 285 288 288 288 290 290 289 289 288 288
283 283 285 284 284 284 282 280 277 278 279 279 279 280 281 282 284 283 285 288 284 284 285 282 281 281 278 282 283 284 285 286 287 287 287 286 285 283
280 281 283 285 285 284 283 280 280 281 280 280 280 280 280 280 280 281 282 285 285 283 285 284 282 281 280 278 280 281 282 282 283 284 285 285 284 283
278 279 281 283 283 284 283 283 283 281 281 280 279 278 279 279 280 281 281 281 282 284 285 285 282 280 278 277 276 279 279 280 279 279 280 283 284 284
279 280 280 280 280 279 281 281 281 280 279 278 277 278 279 280 280 280 281 281 280 280 283 283 282 282 281 278 276 277 277 278 279 278 279 279 279 280
276 276 277 278 277 277 277 278 279 279 278 278 278 279 280 279 278 279 278 279 278 277 280 281 283 282 279 279 279 277 278 276 278 279 279 279 279 280
275 274 273 273 273 274 274 275 276 277 276 277 277 278 278 278 278 279 278 277 276 276 276 278 279 280 281 280 278 278 277 278 278 278 278 277 279 279
273 271 271 272 271 272 272 272 273 274 275 276 275 276 276 277 277 278 277 276 275 276 276 278 278 278 278 278 280 277 277 277 277 277 277 275 276 279
271 270 270 270 270 272 271 271 271 272 274 273 273 273 274 275 275 275 276 276 275 275 274 275 277 276 274 271 275 279 276 277 276 276 276 275 275 277
270 269 268 269 270 270 270 269 269 269 270 270 270 270 270 272 272 272 273 273 272 272 272 272 272 274 273 271 270 271 280 276 275 274 274 275 276 279
268 268 267 267 268 268 267 266 266 266 266 266 266 267 267 269 269 270 270 270 271 271 269 269 270 271 274 272 266 268 272 276 275 273 272 271 270 272
264 266 266 265 264 265 265 262 263 262 263 264 264 264 265 267 266 267 267 268 269 269 269 270 273 274 274 272 267 261 269 269 274 275 275 273 269 266
258 262 260 259 260 261 264 260 259 257 259 260 261 262 262 263 266 265 266 267 268 268 269 269 271 271 270 270 268 265 266 266 270 270 271 275 274 275

GFSNE_sfc_thetae_123.txt.gz
Theta_e
314 325 323 324 325 324 324 320 318 312 312 314 316 323 326 326 323 323 322 310 306 305 307 310 314 316 317 319 320 321 322 321 322 321 320 322 322 322
312 321 324 325 324 325 324 322 322 319 313 318 315 318 324 325 322 324 321 310 305 303 304 306 309 312 313 314 315 317 318 318 319 319 319 320 321 320
309 314 323 325 324 324 324 323 321 321 316 317 315 315 321 322 322 323 322 319 313 304 303 304 305 306 308 309 311 313 314 315 315 316 317 318 320 320
307 309 318 324 322 324 323 323 322 321 319 316 312 312 313 320 320 319 320 321 319 305 303 302 303 303 303 304 305 307 310 310 310 312 313 314 317 318
308 309 314 322 322 321 322 322 323 321 319 318 313 312 312 315 315 317 317 318 314 306 301 300 301 302 302 302 303 305 305 306 307 306 306 307 309 312
310 311 314 320 321 322 320 322 322 321 320 319 314 311 312 315 314 313 309 309 306 302 298 297 299 300 300 300 300 301 303 304 306 306 304 302 302 305
308 305 302 303 305 316 321 322 320 318 318 317 315 311 310 313 314 313 313 303 298 299 297 291 294 294 294 295 299 300 300 301 303 304 303 301 301 302
294 292 292 292 296 297 296 297 307 317 316 315 314 313 314 313 315 312 303 301 301 295 294 287 290 287 289 291 293 294 295 299 301 303 303 303 302 300
287 288 288 288 291 293 292 290 288 288 290 308 313 311 307 304 306 304 302 302 300 290 291 285 286 284 286 289 291 293 295 296 298 299 300 300 299 298
284 285 285 285 286 287 285 284 283 285 285 285 286 285 285 286 292 299 299 287 286 286 288 285 284 282 285 285 289 290 292 294 296 297 297 297 296 296
283 284 284 284 286 288 285 282 282 281 284 285 285 284 285 286 287 291 288 291 285 285 285 284 282 280 282 282 284 288 289 290 291 292 293 292 291 290
281 282 284 284 285 284 282 282 280 280 281 282 282 282 282 282 284 283 286 289 285 284 285 282 281 282 278 281 282 284 285 288 288 288 289 288 288 286
278 279 281 284 284 284 283 281 280 282 281 281 281 281 281 281 281 281 281 283 285 285 285 285 282 281 280 278 279 280 281 282 283 284 286 286 286 285
276 278 279 282 282 282 281 282 282 281 280 280 279 278 278 279 280 281 281 281 281 282 284 285 282 281 279 277 276 279 279 279 280 281 283 284 284 284
276 277 278 278 279 278 280 280 279 278 278 278 277 278 278 279 280 280 281 281 281 281 282 283 283 282 281 279 277 277 277 278 279 279 280 280 281 281
274 274 275 275 275 275 275 276 276 276 276 276 277 278 279 279 278 279 278 279 278 278 280 281 282 282 279 280 279 277 278 276 278 279 279 279 280 281
273 272 271 272 271 272 272 273 274 274 274 275 275 276 277 278 278 278 278 278 276 276 277 279 280 280 280 280 278 278 277 277 278 278 278 277 279 280
271 269 269 269 269 269 269 270 271 271 272 273 273 273 274 275 276 277 278 277 275 275 276 278 279 279 278 278 281 277 277 277 278 278 278 276 276 279
267 267 267 267 268 268 268 268 268 269 270 270 269 270 271 273 274 274 275 275 274 273 274 275 277 277 274 271 275 281 276 277 277 276 277 276 276 278
267 265 265 266 267 267 266 266 266 266 266 267 267 267 267 270 270 270 272 272 272 272 272 272 272 274 273 272 271 272 280 276 275 274 274 275 276 279
266 265 265 265 265 265 262 261 262 262 262 263 264 265 264 267 267 269 269 268 269 270 268 269 270 273 273 273 269 269 272 278 277 274 274 272 272 273
262 264 263 262 261 262 259 257 259 259 260 261 261 262 262 264 265 265 266 267 268 269 269 270 272 273 273 271 267 266 269 270 275 276 276 274 270 268
257 260 258 257 257 257 260 256 256 255 257 257 258 259 260 262 264 264 265 266 267 267 268 268 270 271 271 270 269 267 267 267 269 269 270 275 276 276